FW7377 Weather Reports


Display with metric or nautical units.
time (UTC)temp
F
wind
direction
speed
MPH
gust
MPH
rain 1hr
in
rain 24hr
in
rain mn
in
humidity
%
barometer
mb
20260906102306 87 68 4.0 6.0 0.00 0.00 0.00 55 1021.7
20260906102204 87 90 5.0 7.0 0.00 0.00 0.00 55 1021.5
20260906102104 87 68 4.0 6.0 0.00 0.00 0.00 55 1021.6
20260906102004 87 68 5.0 8.0 0.00 0.00 0.00 55 1021.8
20260906101904 87 68 4.0 7.0 0.00 0.00 0.00 55 1021.6
20260906101804 87 135 3.0 6.0 0.00 0.00 0.00 56 1021.9
20260906101704 87 68 3.0 6.0 0.00 0.00 0.00 55 1021.8
20260906101605 87 68 5.0 8.0 0.00 0.00 0.00 55 1021.6
20260906101504 87 112 4.0 4.0 0.00 0.00 0.00 55 1021.6
20260906101405 87 112 4.0 4.0 0.00 0.00 0.00 55 1021.5
20260906101304 87 68 2.0 4.0 0.00 0.00 0.00 55 1021.6
20260906101204 87 68 2.0 4.0 0.00 0.00 0.00 55 1021.6
20260906101104 87 112 4.0 6.0 0.00 0.00 0.00 55 1021.6
20260906101004 87 68 3.0 7.0 0.00 0.00 0.00 55 1021.7
20260906100904 87 68 4.0 6.0 0.00 0.00 0.00 55 1021.7
20260906100804 87 68 4.0 6.0 0.00 0.00 0.00 54 1021.8
20260906100703 87 22 3.0 6.0 0.00 0.00 0.00 55 1021.8
20260906100603 87 22 3.0 4.0 0.00 0.00 0.00 55 1021.9
20260906100504 87 112 3.0 4.0 0.00 0.00 0.00 55 1021.6
20260906100404 87 90 3.0 6.0 0.00 0.00 0.00 55 1021.7
20260906100304 86 158 4.0 6.0 0.00 0.00 0.00 53 1021.6
20260906100203 86 270 4.0 4.0 0.00 0.00 0.00 53 1021.9
20260906100103 86 135 3.0 4.0 0.00 0.00 0.00 54 1021.6
20260906100003 86 45 3.0 4.0 0.00 0.00 0.00 55 1021.7
20260906095903 86 45 4.0 7.0 0.00 0.00 0.00 55 1022.0
20260906095804 87 112 5.0 7.0 0.00 0.00 0.00 55 1021.8
20260906095703 87 112 3.0 6.0 0.00 0.00 0.00 55 1021.7
20260906095603 87 90 4.0 6.0 0.00 0.00 0.00 55 1021.9
20260906095503 87 112 2.0 4.0 0.00 0.00 0.00 55 1021.8
20260906095403 87 112 3.0 4.0 0.00 0.00 0.00 55 1021.8
20260906095306 87 135 5.0 7.0 0.00 0.00 0.00 55 1021.8
20260906095204 87 90 3.0 8.0 0.00 0.00 0.00 55 1021.8
20260906095104 87 68 3.0 7.0 0.00 0.00 0.00 55 1022.1
20260906095004 86 90 2.0 2.0 0.00 0.00 0.00 55 1021.9
20260906094904 86 158 2.0 4.0 0.00 0.00 0.00 55 1021.8
20260906094804 86 90 3.0 4.0 0.00 0.00 0.00 55 1021.9
20260906094704 86 90 2.0 4.0 0.00 0.00 0.00 55 1021.9
20260906094604 86 45 2.0 6.0 0.00 0.00 0.00 55 1022.0
20260906094504 85 90 5.0 9.0 0.00 0.00 0.00 54 1021.9
20260906094404 85 90 5.0 9.0 0.00 0.00 0.00 55 1021.8
20260906094304 85 68 5.0 8.0 0.00 0.00 0.00 56 1022.1
20260906094204 86 45 4.0 6.0 0.00 0.00 0.00 58 1022.0
20260906094104 85 202 2.0 4.0 0.00 0.00 0.00 57 1021.7
20260906094004 85 135 3.0 9.0 0.00 0.00 0.00 57 1021.7
20260906093903 85 68 4.0 7.0 0.00 0.00 0.00 56 1021.9
20260906093804 85 90 7.0 9.0 0.00 0.00 0.00 56 1021.9
20260906093703 85 45 6.0 9.0 0.00 0.00 0.00 56 1021.8
20260906093604 85 90 3.0 6.0 0.00 0.00 0.00 56 1022.0
20260906093503 85 45 4.0 7.0 0.00 0.00 0.00 56 1022.0
20260906093403 85 90 4.0 7.0 0.00 0.00 0.00 56 1021.9
20260906093303 85 68 4.0 7.0 0.00 0.00 0.00 56 1022.0
20260906093204 85 45 5.0 8.0 0.00 0.00 0.00 56 1021.9
20260906093104 85 90 8.0 11.0 0.00 0.00 0.00 57 1022.1
20260906093005 85 45 3.0 7.0 0.00 0.00 0.00 60 1021.9
20260906092904 85 45 4.0 6.0 0.00 0.00 0.00 60 1022.0
20260906092803 85 45 5.0 8.0 0.00 0.00 0.00 60 1022.0
20260906092704 85 90 6.0 9.0 0.00 0.00 0.00 60 1021.8
20260906092604 85 68 4.0 8.0 0.00 0.00 0.00 60 1022.0
20260906092504 85 90 2.0 4.0 0.00 0.00 0.00 60 1022.0
20260906092405 85 68 4.0 4.0 0.00 0.00 0.00 60 1022.0
20260906092306 84 45 4.0 6.0 0.00 0.00 0.00 60 1022.0
20260906092204 85 45 3.0 4.0 0.00 0.00 0.00 62 1022.0
20260906092104 84 68 2.0 4.0 0.00 0.00 0.00 62 1022.1
20260906092004 84 135 3.0 4.0 0.00 0.00 0.00 62 1021.8
20260906091903 84 68 3.0 6.0 0.00 0.00 0.00 60 1021.9
20260906091803 84 68 5.0 7.0 0.00 0.00 0.00 60 1022.1
20260906091704 84 90 5.0 7.0 0.00 0.00 0.00 61 1022.0
20260906091604 84 90 4.0 8.0 0.00 0.00 0.00 60 1022.0
20260906091503 84 90 6.0 8.0 0.00 0.00 0.00 60 1021.9
20260906091404 84 90 5.0 7.0 0.00 0.00 0.00 60 1021.8
20260906091304 84 68 3.0 7.0 0.00 0.00 0.00 60 1021.9
20260906091204 84 112 4.0 6.0 0.00 0.00 0.00 60 1022.0
20260906091104 84 68 7.0 13.0 0.00 0.00 0.00 60 1021.9
20260906091004 85 90 6.0 9.0 0.00 0.00 0.00 59 1021.9
20260906090904 85 90 3.0 6.0 0.00 0.00 0.00 59 1022.0
20260906090804 84 45 4.0 7.0 0.00 0.00 0.00 59 1021.9
20260906090704 84 22 5.0 8.0 0.00 0.00 0.00 59 1022.0
20260906090604 84 90 4.0 7.0 0.00 0.00 0.00 59 1021.9
20260906090504 84 68 6.0 11.0 0.00 0.00 0.00 60 1021.9
20260906090404 84 90 2.0 4.0 0.00 0.00 0.00 60 1021.7
20260906090304 84 45 3.0 4.0 0.00 0.00 0.00 60 1021.9
20260906090204 84 68 4.0 6.0 0.00 0.00 0.00 60 1022.0
20260906090103 84 45 2.0 4.0 0.00 0.00 0.00 61 1022.1
20260906090004 84 68 2.0 4.0 0.00 0.00 0.00 62 1022.1
20260906085904 84 112 4.0 7.0 0.00 0.00 0.00 62 1021.7
20260906085803 84 68 4.0 8.0 0.00 0.00 0.00 61 1022.1
20260906085704 84 68 4.0 6.0 0.00 0.00 0.00 61 1022.1
20260906085604 84 68 2.0 4.0 0.00 0.00 0.00 62 1021.8
20260906085504 84 68 2.0 4.0 0.00 0.00 0.00 61 1022.1
20260906085404 84 68 3.0 4.0 0.00 0.00 0.00 62 1021.8
20260906085306 84 68 4.0 6.0 0.00 0.00 0.00 62 1021.8
20260906085204 84 0 2.0 4.0 0.00 0.00 0.00 63 1022.1
20260906085105 83 90 3.0 4.0 0.00 0.00 0.00 63 1021.8
20260906085004 83 90 4.0 7.0 0.00 0.00 0.00 64 1021.8
20260906084905 83 112 4.0 6.0 0.00 0.00 0.00 64 1022.0
20260906084804 83 68 3.0 7.0 0.00 0.00 0.00 65 1021.7
20260906084704 83 45 4.0 7.0 0.00 0.00 0.00 64 1021.8
20260906084605 83 68 4.0 6.0 0.00 0.00 0.00 64 1022.1
20260906084504 83 68 4.0 6.0 0.00 0.00 0.00 64 1022.0
20260906084404 83 45 2.0 4.0 0.00 0.00 0.00 64 1021.9
20260906084304 83 68 2.0 4.0 0.00 0.00 0.00 65 1021.8
20260906084204 83 112 3.0 4.0 0.00 0.00 0.00 65 1022.0
20260906084104 83 90 2.0 2.0 0.00 0.00 0.00 65 1021.9
20260906084003 82 135 2.0 2.0 0.00 0.00 0.00 65 1021.9
20260906083903 82 45 3.0 4.0 0.00 0.00 0.00 66 1022.0
20260906083804 82 45 2.0 4.0 0.00 0.00 0.00 67 1022.1
20260906083704 82 68 2.0 4.0 0.00 0.00 0.00 67 1022.0
20260906083604 82 45 3.0 4.0 0.00 0.00 0.00 67 1021.9
20260906083504 82 45 3.0 4.0 0.00 0.00 0.00 68 1021.8
20260906083404 82 90 4.0 4.0 0.00 0.00 0.00 68 1021.9
20260906083303 82 68 5.0 7.0 0.00 0.00 0.00 68 1022.0
20260906083203 82 45 2.0 4.0 0.00 0.00 0.00 67 1021.9
20260906083103 82 68 4.0 4.0 0.00 0.00 0.00 68 1021.8
20260906083004 82 112 2.0 4.0 0.00 0.00 0.00 68 1022.1
20260906082903 82 112 1.0 2.0 0.00 0.00 0.00 68 1021.9
20260906082804 82 90 2.0 2.0 0.00 0.00 0.00 69 1021.7
20260906082703 81 45 2.0 4.0 0.00 0.00 0.00 69 1021.8
20260906082603 81 90 1.0 2.0 0.00 0.00 0.00 69 1022.0
20260906082503 81 68 2.0 4.0 0.00 0.00 0.00 69 1021.7
20260906082404 81 68 2.0 2.0 0.00 0.00 0.00 69 1021.8
20260906082306 80 45 3.0 4.0 0.00 0.00 0.00 70 1022.1
20260906082204 80 45 3.0 4.0 0.00 0.00 0.00 70 1021.7
20260906082104 80 45 4.0 6.0 0.00 0.00 0.00 70 1021.9
20260906082004 80 45 3.0 4.0 0.00 0.00 0.00 70 1022.1
20260906081904 80 68 4.0 6.0 0.00 0.00 0.00 70 1022.0
20260906081803 80 68 4.0 7.0 0.00 0.00 0.00 70 1021.8
20260906081704 80 68 4.0 4.0 0.00 0.00 0.00 71 1021.9
20260906081604 80 68 2.0 4.0 0.00 0.00 0.00 71 1021.9
20260906081504 80 90 2.0 2.0 0.00 0.00 0.00 72 1022.0
20260906081404 80 90 2.0 2.0 0.00 0.00 0.00 72 1022.0
20260906081304 80 135 3.0 4.0 0.00 0.00 0.00 72 1021.8
20260906081204 80 158 3.0 4.0 0.00 0.00 0.00 72 1021.9
20260906081103 80 158 1.0 2.0 0.00 0.00 0.00 71 1022.0
20260906081004 80 45 3.0 4.0 0.00 0.00 0.00 71 1021.9
20260906080903 80 68 4.0 4.0 0.00 0.00 0.00 71 1022.0
20260906080803 80 68 4.0 4.0 0.00 0.00 0.00 71 1021.9
20260906080704 80 45 2.0 4.0 0.00 0.00 0.00 72 1022.0
20260906080604 80 135 2.0 2.0 0.00 0.00 0.00 72 1022.0
20260906080503 80 180 1.0 2.0 0.00 0.00 0.00 72 1022.0
20260906080403 80 112 2.0 2.0 0.00 0.00 0.00 72 1022.0
20260906080303 80 90 1.0 2.0 0.00 0.00 0.00 73 1021.9
20260906080204 79 45 1.0 2.0 0.00 0.00 0.00 73 1021.9
20260906080104 79 68 2.0 4.0 0.00 0.00 0.00 73 1022.0
20260906080004 79 68 2.0 4.0 0.00 0.00 0.00 73 1021.9
20260906075904 79 90 2.0 2.0 0.00 0.00 0.00 73 1022.1
20260906075804 79 135 2.0 2.0 0.00 0.00 0.00 73 1022.0
20260906075704 79 68 3.0 4.0 0.00 0.00 0.00 73 1022.0
20260906075604 79 68 1.0 4.0 0.00 0.00 0.00 74 1021.9
20260906075504 79 180 2.0 2.0 0.00 0.00 0.00 73 1021.8
20260906075404 79 180 2.0 2.0 0.00 0.00 0.00 73 1021.9
20260906075306 79 112 1.0 2.0 0.00 0.00 0.00 73 1022.1
20260906075203 79 180 2.0 2.0 0.00 0.00 0.00 73 1022.2
20260906075104 79 135 2.0 2.0 0.00 0.00 0.00 73 1022.1
20260906075004 79 112 1.0 2.0 0.00 0.00 0.00 73 1022.0
20260906074904 79 90 2.0 2.0 0.00 0.00 0.00 74 1022.1
20260906074804 79 158 2.0 2.0 0.00 0.00 0.00 73 1021.8
20260906074703 79 112 2.0 4.0 0.00 0.00 0.00 73 1022.0
20260906074604 79 202 2.0 2.0 0.00 0.00 0.00 72 1021.7
20260906074504 79 202 2.0 2.0 0.00 0.00 0.00 72 1022.0
20260906074404 79 90 2.0 4.0 0.00 0.00 0.00 72 1021.9
20260906074304 79 90 0.0 0.0 0.00 0.00 0.00 73 1021.9
20260906074204 79 90 0.0 2.0 0.00 0.00 0.00 72 1021.7
20260906074104 79 90 1.0 2.0 0.00 0.00 0.00 73 1022.0
20260906074004 79 90 1.0 2.0 0.00 0.00 0.00 73 1021.9
20260906073904 79 90 1.0 2.0 0.00 0.00 0.00 73 1021.9
20260906073804 79 68 2.0 2.0 0.00 0.00 0.00 73 1021.9
20260906073704 79 68 2.0 2.0 0.00 0.00 0.00 73 1021.8
20260906073604 79 68 1.0 4.0 0.00 0.00 0.00 73 1021.8
20260906073503 79 0 0.0 0.0 0.00 0.00 0.00 73 1021.7
20260906073404 78 0 0.0 0.0 0.00 0.00 0.00 73 1021.8
20260906073304 78 0 0.0 0.0 0.00 0.00 0.00 73 1021.8
20260906073204 78 68 1.0 2.0 0.00 0.00 0.00 73 1021.9
20260906073104 78 45 2.0 4.0 0.00 0.00 0.00 74 1021.8
20260906073004 78 68 0.0 0.0 0.00 0.00 0.00 74 1021.7
20260906072904 78 22 0.0 2.0 0.00 0.00 0.00 74 1021.7
20260906072803 78 68 1.0 2.0 0.00 0.00 0.00 74 1021.8
20260906072704 78 68 1.0 2.0 0.00 0.00 0.00 74 1021.5
20260906072603 78 90 2.0 2.0 0.00 0.00 0.00 74 1021.7
20260906072503 78 68 2.0 4.0 0.00 0.00 0.00 74 1021.5
20260906072404 78 68 2.0 4.0 0.00 0.00 0.00 74 1021.7
20260906072306 78 90 1.0 2.0 0.00 0.00 0.00 74 1021.7
20260906072204 78 90 2.0 4.0 0.00 0.00 0.00 74 1021.8
20260906072104 78 90 2.0 4.0 0.00 0.00 0.00 74 1021.7
20260906072003 78 45 2.0 4.0 0.00 0.00 0.00 74 1021.6
20260906071903 78 45 3.0 4.0 0.00 0.00 0.00 74 1021.8
20260906071804 78 68 0.0 2.0 0.00 0.00 0.00 75 1021.7
20260906071703 78 90 2.0 2.0 0.00 0.00 0.00 74 1021.8
20260906071603 78 90 2.0 4.0 0.00 0.00 0.00 75 1021.7
20260906071504 77 90 2.0 2.0 0.00 0.00 0.00 75 1021.6
20260906071403 77 68 2.0 4.0 0.00 0.00 0.00 75 1021.5
20260906071303 77 90 2.0 2.0 0.00 0.00 0.00 75 1021.8
20260906071204 77 90 2.0 2.0 0.00 0.00 0.00 75 1021.6
20260906071103 77 68 1.0 2.0 0.00 0.00 0.00 76 1021.7
20260906071004 77 68 1.0 2.0 0.00 0.00 0.00 76 1021.6
20260906070903 77 112 2.0 2.0 0.00 0.00 0.00 76 1021.5
20260906070804 77 45 1.0 2.0 0.00 0.00 0.00 76 1021.7
20260906070704 76 45 2.0 4.0 0.00 0.00 0.00 76 1021.5
20260906070603 76 90 2.0 4.0 0.00 0.00 0.00 76 1021.6
20260906070504 76 45 0.0 2.0 0.00 0.00 0.00 77 1021.7
20260906070405 76 90 1.0 2.0 0.00 0.00 0.00 77 1021.5
20260906070303 76 90 3.0 4.0 0.00 0.00 0.00 77 1021.7
20260906070203 76 90 3.0 4.0 0.00 0.00 0.00 77 1021.7
20260906070104 76 112 2.0 4.0 0.00 0.00 0.00 76 1021.7
20260906070003 76 68 2.0 4.0 0.00 0.00 0.00 77 1021.8
20260906065903 76 45 3.0 4.0 0.00 0.00 0.00 76 1021.5
20260906065804 76 68 3.0 4.0 0.00 0.00 0.00 77 1021.5
20260906065704 76 68 4.0 6.0 0.00 0.00 0.00 77 1021.7
20260906065603 76 90 2.0 4.0 0.00 0.00 0.00 77 1021.8
20260906065503 76 90 3.0 4.0 0.00 0.00 0.00 77 1021.7
20260906065403 76 68 3.0 4.0 0.00 0.00 0.00 77 1021.9
20260906065305 76 90 2.0 4.0 0.00 0.00 0.00 77 1021.5
20260906065204 76 90 2.0 4.0 0.00 0.00 0.00 77 1021.4
20260906065104 76 112 2.0 4.0 0.00 0.00 0.00 78 1021.5
20260906065003 76 45 3.0 4.0 0.00 0.00 0.00 78 1021.5
20260906064904 75 68 4.0 6.0 0.00 0.00 0.00 78 1021.5
20260906064804 75 45 2.0 4.0 0.00 0.00 0.00 78 1021.6
20260906064704 75 68 3.0 4.0 0.00 0.00 0.00 78 1021.7
20260906064604 75 112 3.0 4.0 0.00 0.00 0.00 78 1021.6
20260906064504 75 68 3.0 4.0 0.00 0.00 0.00 78 1021.7
20260906064404 75 68 4.0 6.0 0.00 0.00 0.00 78 1021.8
20260906064305 75 68 4.0 6.0 0.00 0.00 0.00 78 1021.9
20260906064203 75 22 4.0 7.0 0.00 0.00 0.00 78 1021.4
20260906064104 75 45 4.0 8.0 0.00 0.00 0.00 78 1021.7
20260906064004 75 90 3.0 4.0 0.00 0.00 0.00 79 1021.7
20260906063903 75 90 4.0 7.0 0.00 0.00 0.00 79 1021.7
20260906063804 75 112 2.0 4.0 0.00 0.00 0.00 79 1021.5
20260906063703 75 68 4.0 6.0 0.00 0.00 0.00 79 1021.5
20260906063603 75 90 4.0 7.0 0.00 0.00 0.00 79 1021.7
20260906063503 75 45 3.0 6.0 0.00 0.00 0.00 79 1021.5
20260906063403 75 112 2.0 4.0 0.00 0.00 0.00 79 1021.5
20260906063304 75 45 3.0 4.0 0.00 0.00 0.00 79 1021.6
20260906063204 74 68 3.0 6.0 0.00 0.00 0.00 80 1021.5
20260906063104 74 68 4.0 7.0 0.00 0.00 0.00 80 1021.3
20260906063004 74 68 4.0 6.0 0.00 0.00 0.00 80 1021.4
20260906062904 74 22 2.0 4.0 0.00 0.00 0.00 80 1021.3
20260906062804 74 90 2.0 2.0 0.00 0.00 0.00 80 1021.2
20260906062704 74 68 2.0 4.0 0.00 0.00 0.00 81 1021.5
20260906062604 74 90 4.0 6.0 0.00 0.00 0.00 81 1021.4
20260906062505 74 68 3.0 4.0 0.00 0.00 0.00 81 1021.5
20260906062404 74 45 4.0 7.0 0.00 0.00 0.00 81 1021.3
20260906062306 74 45 3.0 6.0 0.00 0.00 0.00 81 1021.5
20260906062203 74 68 2.0 4.0 0.00 0.00 0.00 81 1021.4
20260906062104 74 90 3.0 4.0 0.00 0.00 0.00 81 1021.1
20260906062003 74 90 4.0 6.0 0.00 0.00 0.00 81 1021.3
20260906061904 74 68 4.0 7.0 0.00 0.00 0.00 82 1021.3
20260906061804 74 90 2.0 6.0 0.00 0.00 0.00 82 1021.0
20260906061703 74 45 3.0 6.0 0.00 0.00 0.00 82 1021.2
20260906061604 74 90 4.0 7.0 0.00 0.00 0.00 82 1021.2
20260906061504 73 90 4.0 8.0 0.00 0.00 0.00 82 1021.2
20260906061404 73 90 4.0 8.0 0.00 0.00 0.00 82 1021.2
20260906061304 73 90 4.0 6.0 0.00 0.00 0.00 82 1021.2
20260906061204 73 68 4.0 6.0 0.00 0.00 0.00 83 1021.3
20260906061104 73 68 4.0 6.0 0.00 0.00 0.00 83 1021.3
20260906061004 73 68 3.0 6.0 0.00 0.00 0.00 83 1021.3
20260906060904 73 68 3.0 6.0 0.00 0.00 0.00 84 1021.2
20260906060804 73 45 3.0 4.0 0.00 0.00 0.00 84 1021.2
20260906060704 73 90 3.0 7.0 0.00 0.00 0.00 84 1021.4
20260906060604 73 45 2.0 4.0 0.00 0.00 0.00 84 1021.3
20260906060505 72 112 2.0 4.0 0.00 0.00 0.00 86 1021.3
20260906060403 72 112 2.0 4.0 0.00 0.00 0.00 86 1021.1
20260906060304 72 112 2.0 4.0 0.00 0.00 0.00 86 1021.1
20260906060203 72 112 2.0 4.0 0.00 0.00 0.00 86 1021.1
20260906060103 72 112 2.0 4.0 0.00 0.00 0.00 86 1021.1
20260906060004 72 112 2.0 4.0 0.00 0.00 0.00 86 1021.2
20260906055903 72 68 2.0 4.0 0.00 0.00 0.00 87 1021.2
20260906055804 72 22 3.0 6.0 0.00 0.00 0.00 87 1021.1
20260906055704 72 90 4.0 6.0 0.00 0.00 0.00 87 1021.1
20260906055604 72 45 4.0 4.0 0.00 0.00 0.00 87 1020.9
20260906055504 72 45 2.0 4.0 0.00 0.00 0.00 88 1020.9
20260906055403 72 68 4.0 6.0 0.00 0.00 0.00 88 1020.8
20260906055306 71 90 4.0 6.0 0.00 0.00 0.00 88 1021.0
20260906055204 71 45 4.0 7.0 0.00 0.00 0.00 88 1021.1
20260906055104 71 45 5.0 11.0 0.00 0.00 0.00 88 1021.0
20260906055005 71 22 4.0 8.0 0.00 0.00 0.00 88 1020.9
20260906054904 71 45 3.0 7.0 0.00 0.00 0.00 88 1021.1
20260906054804 71 68 4.0 6.0 0.00 0.00 0.00 88 1020.8
20260906054705 71 45 4.0 4.0 0.00 0.00 0.00 89 1021.1
20260906054604 71 45 3.0 4.0 0.00 0.00 0.00 89 1020.9
20260906054504 71 45 4.0 6.0 0.00 0.00 0.00 89 1021.1
20260906054405 71 45 3.0 4.0 0.00 0.00 0.00 89 1020.9
20260906054304 71 45 2.0 4.0 0.00 0.00 0.00 89 1021.0
20260906054204 70 90 2.0 4.0 0.00 0.00 0.00 89 1021.0
20260906054103 70 22 2.0 4.0 0.00 0.00 0.00 90 1021.0
20260906054004 70 90 1.0 2.0 0.00 0.00 0.00 90 1020.9
20260906053904 70 22 2.0 4.0 0.00 0.00 0.00 90 1021.1
20260906053804 70 68 2.0 2.0 0.00 0.00 0.00 90 1020.9
20260906053704 70 68 1.0 2.0 0.00 0.00 0.00 90 1020.9
20260906053603 70 45 2.0 2.0 0.00 0.00 0.00 90 1021.2
20260906053504 70 90 0.0 2.0 0.00 0.00 0.00 90 1021.0
20260906053404 70 90 0.0 2.0 0.00 0.00 0.00 91 1020.8
20260906053305 70 68 1.0 2.0 0.00 0.00 0.00 91 1021.1
20260906053203 70 68 1.0 2.0 0.00 0.00 0.00 91 1021.0
20260906053103 70 68 2.0 2.0 0.00 0.00 0.00 91 1021.0
20260906053003 70 22 2.0 4.0 0.00 0.00 0.00 91 1020.7
20260906052903 70 68 2.0 2.0 0.00 0.00 0.00 91 1020.9
20260906052803 70 45 2.0 4.0 0.00 0.00 0.00 91 1020.9
20260906052703 69 45 2.0 4.0 0.00 0.00 0.00 91 1020.7
20260906052604 69 45 2.0 4.0 0.00 0.00 0.00 91 1020.7
20260906052503 69 158 0.0 0.0 0.00 0.00 0.00 91 1020.9
20260906052403 69 158 0.0 0.0 0.00 0.00 0.00 91 1020.7
20260906052305 69 270 0.0 0.0 0.00 0.00 0.00 91 1020.6
20260906052204 69 270 0.0 0.0 0.00 0.00 0.00 91 1020.7
20260906052104 69 112 0.0 0.0 0.00 0.00 0.00 91 1020.8
20260906052004 69 112 0.0 0.0 0.00 0.00 0.00 91 1020.7
20260906051904 69 270 1.0 2.0 0.00 0.00 0.00 91 1020.7
20260906051803 69 45 1.0 4.0 0.00 0.00 0.00 91 1020.8
20260906051704 69 45 2.0 4.0 0.00 0.00 0.00 91 1020.9
20260906051605 69 90 0.0 0.0 0.00 0.00 0.00 91 1020.7
20260906051504 69 90 2.0 2.0 0.00 0.00 0.00 91 1020.8
20260906051404 69 45 3.0 4.0 0.00 0.00 0.00 91 1020.8
20260906051304 69 68 2.0 4.0 0.00 0.00 0.00 91 1020.9
20260906051204 69 90 1.0 2.0 0.00 0.00 0.00 91 1020.6
20260906051104 69 90 2.0 4.0 0.00 0.00 0.00 91 1020.7
20260906051003 69 112 2.0 4.0 0.00 0.00 0.00 90 1020.5
20260906050904 69 68 3.0 4.0 0.00 0.00 0.00 90 1020.8
20260906050804 69 90 2.0 4.0 0.00 0.00 0.00 90 1020.6
20260906050704 69 68 2.0 2.0 0.00 0.00 0.00 90 1021.0
20260906050603 69 68 4.0 6.0 0.00 0.00 0.00 90 1020.4
20260906050504 69 68 4.0 8.0 0.00 0.00 0.00 90 1020.8
20260906050404 69 90 3.0 4.0 0.00 0.00 0.00 90 1020.7
20260906050303 69 90 2.0 4.0 0.00 0.00 0.00 90 1020.8
20260906050204 69 112 3.0 4.0 0.00 0.00 0.00 90 1020.8
20260906050104 69 68 2.0 4.0 0.00 0.00 0.00 90 1020.7
20260906050004 69 112 3.0 4.0 0.00 0.00 0.00 90 1020.7
20260906045903 69 68 2.0 4.0 0.00 0.00 0.00 90 1020.5
20260906045804 69 68 3.0 4.0 0.00 0.00 0.00 90 1020.6
20260906045704 69 90 2.0 4.0 0.00 0.00 0.00 90 1020.6
20260906045604 69 90 3.0 4.0 0.00 0.00 0.00 89 1020.7
20260906045504 69 68 2.0 4.0 0.00 0.00 0.00 89 1020.4
20260906045404 69 112 1.0 2.0 0.00 0.00 0.00 89 1020.7
20260906045306 69 68 2.0 4.0 0.00 0.00 0.00 89 1020.7
20260906045204 69 90 2.0 4.0 0.00 0.00 0.00 89 1020.6
20260906045104 70 90 3.0 4.0 0.00 0.00 0.00 89 1020.8
20260906045003 70 90 4.0 6.0 0.00 0.00 0.00 89 1020.5
20260906044904 70 45 4.0 6.0 0.00 0.00 0.00 89 1020.5
20260906044804 70 68 4.0 4.0 0.00 0.00 0.00 89 1020.6
20260906044704 70 68 4.0 6.0 0.00 0.00 0.00 89 1020.6
20260906044604 70 68 4.0 6.0 0.00 0.00 0.00 89 1020.5
20260906044504 70 90 3.0 6.0 0.00 0.00 0.00 89 1020.5
20260906044404 70 68 3.0 4.0 0.00 0.00 0.00 89 1020.5
20260906044303 70 68 4.0 6.0 0.00 0.00 0.00 89 1020.4
20260906044204 70 68 2.0 6.0 0.00 0.00 0.00 89 1020.5
20260906044104 70 90 2.0 4.0 0.00 0.00 0.00 89 1020.5
20260906044005 70 90 2.0 4.0 0.00 0.00 0.00 89 1020.2
20260906043904 70 68 3.0 4.0 0.00 0.00 0.00 89 1020.4
20260906043804 70 68 3.0 4.0 0.00 0.00 0.00 89 1020.1
20260906043704 70 90 3.0 4.0 0.00 0.00 0.00 89 1020.4
20260906043604 70 90 4.0 4.0 0.00 0.00 0.00 89 1020.4
20260906043504 70 68 3.0 4.0 0.00 0.00 0.00 88 1020.2
20260906043403 70 68 4.0 6.0 0.00 0.00 0.00 88 1020.3
20260906043304 70 68 4.0 7.0 0.00 0.00 0.00 88 1020.3
20260906043203 70 68 4.0 6.0 0.00 0.00 0.00 88 1020.4
20260906043104 70 90 4.0 7.0 0.00 0.00 0.00 88 1020.2
20260906043004 70 68 3.0 6.0 0.00 0.00 0.00 88 1020.3
20260906042903 70 68 3.0 4.0 0.00 0.00 0.00 88 1020.4
20260906042803 70 68 3.0 4.0 0.00 0.00 0.00 88 1020.2
20260906042704 70 68 2.0 4.0 0.00 0.00 0.00 88 1020.3
20260906042604 70 90 4.0 6.0 0.00 0.00 0.00 88 1020.4
20260906042504 70 68 3.0 4.0 0.00 0.00 0.00 88 1020.6
20260906042403 70 112 2.0 4.0 0.00 0.00 0.00 88 1020.4
20260906042306 70 68 3.0 6.0 0.00 0.00 0.00 88 1020.4
20260906042203 70 90 3.0 4.0 0.00 0.00 0.00 88 1020.4
20260906042104 70 45 3.0 6.0 0.00 0.00 0.00 88 1020.2
20260906042004 70 68 4.0 7.0 0.00 0.00 0.00 88 1020.4
20260906041904 70 90 4.0 4.0 0.00 0.00 0.00 88 1020.5
20260906041804 70 45 5.0 8.0 0.00 0.00 0.00 88 1020.3
20260906041704 70 68 4.0 6.0 0.00 0.00 0.00 88 1020.2
20260906041604 70 68 4.0 7.0 0.00 0.00 0.00 88 1020.1
20260906041504 70 45 4.0 7.0 0.00 0.00 0.00 88 1020.4
20260906041404 70 22 3.0 4.0 0.00 0.00 0.00 88 1020.3
20260906041304 70 68 4.0 7.0 0.00 0.00 0.00 88 1020.6
20260906041204 70 90 4.0 6.0 0.00 0.00 0.00 88 1020.2
20260906041103 70 90 5.0 8.0 0.00 0.00 0.00 88 1020.3
20260906041004 70 90 4.0 4.0 0.00 0.00 0.00 88 1020.3
20260906040904 70 68 3.0 4.0 0.00 0.00 0.00 88 1020.4
20260906040803 70 90 4.0 4.0 0.00 0.00 0.00 88 1020.1
20260906040703 70 90 4.0 4.0 0.00 0.00 0.00 88 1020.3
20260906040604 70 90 4.0 4.0 0.00 0.00 0.00 88 1020.3
20260906040504 70 90 4.0 4.0 0.00 0.00 0.00 88 1020.1
20260906040403 70 90 3.0 6.0 0.00 0.00 0.00 88 1020.2
20260906040304 70 68 4.0 6.0 0.00 0.00 0.00 89 1020.2
20260906040203 70 90 4.0 9.0 0.00 0.00 0.00 89 1020.3
20260906040104 70 90 5.0 7.0 0.00 0.00 0.00 89 1020.2
20260906040003 70 90 5.0 7.0 0.00 0.00 0.00 89 1020.1
20260906035903 70 45 3.0 4.0 0.00 0.00 0.00 89 1020.0
20260906035804 70 68 4.0 6.0 0.00 0.00 0.00 89 1020.2
20260906035703 70 45 4.0 4.0 0.00 0.00 0.00 89 1020.2
20260906035603 70 22 4.0 6.0 0.00 0.00 0.00 89 1020.1
20260906035504 70 68 4.0 6.0 0.00 0.00 0.00 89 1020.3
20260906035403 70 68 4.0 6.0 0.00 0.00 0.00 89 1020.4
20260906035306 70 68 4.0 6.0 0.00 0.00 0.00 89 1020.1
20260906035204 70 68 3.0 4.0 0.00 0.00 0.00 89 1020.2
20260906035104 71 68 4.0 7.0 0.00 0.00 0.00 89 1020.2
20260906035004 71 90 4.0 6.0 0.00 0.00 0.00 89 1020.6
20260906034904 71 90 4.0 6.0 0.00 0.00 0.00 89 1020.4
20260906034804 71 90 4.0 7.0 0.00 0.00 0.00 89 1020.4
20260906034704 71 68 4.0 6.0 0.00 0.00 0.00 89 1020.4
20260906034604 71 45 5.0 9.0 0.00 0.00 0.00 89 1020.2
20260906034504 71 68 5.0 8.0 0.00 0.00 0.00 89 1020.3
20260906034404 71 90 5.0 7.0 0.00 0.00 0.00 89 1020.3
20260906034304 71 68 6.0 7.0 0.00 0.00 0.00 89 1020.0
20260906034203 71 90 6.0 8.0 0.00 0.00 0.00 89 1020.4
20260906034103 71 45 4.0 4.0 0.00 0.00 0.00 89 1020.2
20260906034004 71 45 3.0 8.0 0.00 0.00 0.00 89 1020.2
20260906033903 71 68 6.0 8.0 0.00 0.00 0.00 88 1020.5
20260906033803 71 68 6.0 8.0 0.00 0.00 0.00 88 1020.4
20260906033704 71 68 6.0 8.0 0.00 0.00 0.00 88 1020.2
20260906033604 71 68 4.0 7.0 0.00 0.00 0.00 88 1020.2
20260906033503 71 68 4.0 7.0 0.00 0.00 0.00 88 1020.3
20260906033403 71 68 4.0 7.0 0.00 0.00 0.00 88 1020.3
20260906033304 71 68 4.0 7.0 0.00 0.00 0.00 88 1020.3
20260906033204 71 90 4.0 6.0 0.00 0.00 0.00 88 1020.3
20260906033104 71 68 4.0 7.0 0.00 0.00 0.00 88 1020.2
20260906033004 71 45 4.0 4.0 0.00 0.00 0.00 88 1020.3
20260906032904 71 68 3.0 4.0 0.00 0.00 0.00 88 1020.5
20260906032804 71 68 3.0 4.0 0.00 0.00 0.00 88 1020.3
20260906032704 71 90 5.0 8.0 0.00 0.00 0.00 88 1020.4
20260906032604 71 90 5.0 8.0 0.00 0.00 0.00 88 1020.4
20260906032504 71 90 6.0 8.0 0.00 0.00 0.00 88 1020.3
20260906032404 71 90 5.0 8.0 0.00 0.00 0.00 88 1020.4
20260906032306 71 45 4.0 7.0 0.00 0.00 0.00 88 1020.3
20260906032204 71 45 3.0 6.0 0.00 0.00 0.00 87 1020.3
20260906032104 71 68 4.0 6.0 0.00 0.00 0.00 87 1020.3
20260906032003 71 45 4.0 6.0 0.00 0.00 0.00 87 1020.0
20260906031903 71 68 4.0 6.0 0.00 0.00 0.00 87 1020.2
20260906031804 71 68 3.0 4.0 0.00 0.00 0.00 87 1020.2
20260906031703 71 45 4.0 7.0 0.00 0.00 0.00 87 1020.3
20260906031603 71 68 4.0 6.0 0.00 0.00 0.00 87 1020.1
20260906031503 71 90 3.0 4.0 0.00 0.00 0.00 87 1020.2
20260906031403 71 68 2.0 4.0 0.00 0.00 0.00 87 1020.4
20260906031303 71 68 3.0 6.0 0.00 0.00 0.00 87 1020.3
20260906031204 71 68 3.0 4.0 0.00 0.00 0.00 87 1020.1
20260906031104 71 68 2.0 4.0 0.00 0.00 0.00 87 1020.4
20260906031004 71 90 3.0 6.0 0.00 0.00 0.00 87 1020.3
20260906030903 71 68 4.0 4.0 0.00 0.00 0.00 88 1020.4
20260906030803 71 68 3.0 6.0 0.00 0.00 0.00 88 1020.1
20260906030704 71 45 2.0 4.0 0.00 0.00 0.00 88 1020.5
20260906030604 71 68 4.0 6.0 0.00 0.00 0.00 88 1020.3
20260906030504 71 45 3.0 4.0 0.00 0.00 0.00 88 1020.2
20260906030404 71 45 3.0 7.0 0.00 0.00 0.00 89 1020.2
20260906030304 71 68 4.0 7.0 0.00 0.00 0.00 89 1020.4
20260906030205 71 68 3.0 4.0 0.00 0.00 0.00 89 1020.2
20260906030104 71 45 3.0 4.0 0.00 0.00 0.00 90 1020.2
20260906030004 70 22 3.0 4.0 0.00 0.00 0.00 90 1020.1
20260906025904 70 45 2.0 4.0 0.00 0.00 0.00 90 1020.3
20260906025803 70 45 3.0 4.0 0.00 0.00 0.00 91 1020.4
20260906025704 70 45 4.0 6.0 0.00 0.00 0.00 91 1020.2
20260906025604 71 68 4.0 6.0 0.00 0.00 0.00 91 1020.1
20260906025504 71 45 2.0 4.0 0.00 0.00 0.00 91 1020.3
20260906025404 71 68 3.0 6.0 0.00 0.00 0.00 91 1020.2
20260906025306 71 90 2.0 4.0 0.00 0.00 0.00 91 1020.1
20260906025204 71 90 3.0 4.0 0.00 0.00 0.00 91 1020.2
20260906025104 71 68 2.0 4.0 0.00 0.00 0.00 92 1020.3
20260906025005 71 90 2.0 4.0 0.00 0.00 0.00 92 1020.3
20260906024904 71 45 2.0 4.0 0.00 0.00 0.00 92 1020.4
20260906024805 71 90 3.0 4.0 0.00 0.00 0.00 92 1020.3
20260906024704 71 68 2.0 4.0 0.00 0.00 0.00 92 1020.1
20260906024605 71 90 2.0 4.0 0.00 0.00 0.00 92 1020.3
20260906024504 71 90 2.0 4.0 0.00 0.00 0.00 92 1020.2
20260906024404 71 68 3.0 4.0 0.00 0.00 0.00 92 1020.3
20260906024304 71 90 3.0 4.0 0.00 0.00 0.00 92 1020.3
20260906024205 71 45 4.0 6.0 0.00 0.00 0.00 92 1020.2
20260906024103 71 68 3.0 4.0 0.00 0.00 0.00 92 1020.2
20260906024004 71 68 3.0 4.0 0.00 0.00 0.00 92 1020.5
20260906023904 71 90 4.0 4.0 0.00 0.00 0.00 92 1020.3
20260906023803 71 68 4.0 6.0 0.00 0.00 0.00 91 1020.5
20260906023704 71 68 4.0 6.0 0.00 0.00 0.00 91 1020.3
20260906023604 71 45 3.0 4.0 0.00 0.00 0.00 91 1020.7
20260906023504 71 68 4.0 6.0 0.00 0.00 0.00 91 1020.4
20260906023404 71 68 4.0 6.0 0.00 0.00 0.00 91 1020.2
20260906023304 71 45 4.0 6.0 0.00 0.00 0.00 91 1020.4
20260906023204 70 90 2.0 4.0 0.00 0.00 0.00 91 1020.4
20260906023103 70 90 3.0 4.0 0.00 0.00 0.00 91 1020.6
20260906023003 70 90 4.0 6.0 0.00 0.00 0.00 91 1020.5
20260906022903 70 68 2.0 2.0 0.00 0.00 0.00 91 1020.6
20260906022804 70 68 2.0 4.0 0.00 0.00 0.00 91 1020.5
20260906022704 70 45 2.0 2.0 0.00 0.00 0.00 91 1020.4
20260906022604 70 90 2.0 4.0 0.00 0.00 0.00 91 1020.4
20260906022503 70 68 2.0 2.0 0.00 0.00 0.00 91 1020.3
20260906022404 70 68 3.0 4.0 0.00 0.00 0.00 91 1020.5
20260906022306 70 68 4.0 7.0 0.00 0.00 0.00 91 1020.2
20260906022204 71 68 4.0 6.0 0.00 0.00 0.00 91 1020.3
20260906022104 70 68 4.0 4.0 0.00 0.00 0.00 91 1020.5
20260906022004 71 90 3.0 4.0 0.00 0.00 0.00 91 1020.3
20260906021904 71 68 3.0 4.0 0.00 0.00 0.00 91 1020.5
20260906021803 71 90 3.0 4.0 0.00 0.00 0.00 91 1020.3
20260906021704 71 68 3.0 4.0 0.00 0.00 0.00 91 1020.3
20260906021604 71 68 2.0 4.0 0.00 0.00 0.00 91 1020.4
20260906021504 71 68 2.0 4.0 0.00 0.00 0.00 91 1020.3
20260906021404 71 90 3.0 4.0 0.00 0.00 0.00 91 1020.2
20260906021304 71 45 2.0 4.0 0.00 0.00 0.00 91 1020.1
20260906021204 71 90 3.0 4.0 0.00 0.00 0.00 91 1020.3
20260906021103 71 68 4.0 6.0 0.00 0.00 0.00 91 1020.4
20260906021004 70 68 2.0 4.0 0.00 0.00 0.00 91 1020.3
20260906020904 71 90 3.0 4.0 0.00 0.00 0.00 91 1020.4
20260906020804 71 68 2.0 4.0 0.00 0.00 0.00 91 1020.4
20260906020704 70 45 2.0 4.0 0.00 0.00 0.00 91 1020.2
20260906020604 71 90 3.0 4.0 0.00 0.00 0.00 91 1020.2
20260906020504 71 68 3.0 4.0 0.00 0.00 0.00 91 1020.2
20260906020404 71 68 4.0 6.0 0.00 0.00 0.00 91 1020.3
20260906020303 71 90 3.0 4.0 0.00 0.00 0.00 91 1020.3
20260906020204 70 22 2.0 2.0 0.00 0.00 0.00 91 1020.2
20260906020104 70 22 2.0 2.0 0.00 0.00 0.00 91 1020.4
20260906020003 70 90 1.0 2.0 0.00 0.00 0.00 91 1020.1
20260906015905 70 68 2.0 4.0 0.00 0.00 0.00 91 1020.5
20260906015803 70 112 2.0 2.0 0.00 0.00 0.00 91 1020.3
20260906015704 70 112 2.0 2.0 0.00 0.00 0.00 91 1020.5
20260906015605 70 90 2.0 2.0 0.00 0.00 0.00 91 1020.6
20260906015504 71 112 2.0 4.0 0.00 0.00 0.00 91 1020.5
20260906015404 71 90 3.0 4.0 0.00 0.00 0.00 91 1020.2
20260906015306 71 90 3.0 4.0 0.00 0.00 0.00 91 1020.3
20260906015204 70 90 3.0 4.0 0.00 0.00 0.00 91 1020.4
20260906015103 70 68 2.0 4.0 0.00 0.00 0.00 90 1020.4
20260906015004 70 90 2.0 4.0 0.00 0.00 0.00 90 1020.1
20260906014904 70 68 3.0 4.0 0.00 0.00 0.00 90 1020.2
20260906014803 70 68 3.0 4.0 0.00 0.00 0.00 90 1020.4
20260906014704 70 68 4.0 4.0 0.00 0.00 0.00 90 1020.3
20260906014604 70 68 3.0 4.0 0.00 0.00 0.00 90 1020.2
20260906014504 70 68 2.0 4.0 0.00 0.00 0.00 90 1020.5
20260906014403 70 68 2.0 4.0 0.00 0.00 0.00 90 1020.5
20260906014304 71 90 3.0 4.0 0.00 0.00 0.00 89 1020.2
20260906014204 71 68 4.0 4.0 0.00 0.00 0.00 89 1020.4
20260906014103 71 68 3.0 4.0 0.00 0.00 0.00 89 1020.3
20260906014003 71 112 2.0 4.0 0.00 0.00 0.00 89 1020.2
20260906013903 71 112 3.0 4.0 0.00 0.00 0.00 89 1020.3
20260906013803 71 90 3.0 4.0 0.00 0.00 0.00 89 1020.3
20260906013703 71 112 2.0 6.0 0.00 0.00 0.00 89 1020.5
20260906013604 71 90 2.0 4.0 0.00 0.00 0.00 88 1020.3
20260906013503 71 90 2.0 4.0 0.00 0.00 0.00 88 1020.4
20260906013403 71 90 2.0 4.0 0.00 0.00 0.00 88 1020.2
20260906013304 71 68 2.0 4.0 0.00 0.00 0.00 88 1020.4
20260906013203 71 68 2.0 4.0 0.00 0.00 0.00 88 1020.4
20260906013104 71 90 2.0 4.0 0.00 0.00 0.00 88 1020.2
20260906013004 71 90 2.0 2.0 0.00 0.00 0.00 88 1020.3
20260906012903 71 90 2.0 2.0 0.00 0.00 0.00 88 1020.5
20260906012803 71 90 2.0 2.0 0.00 0.00 0.00 88 1020.2
20260906012704 71 135 2.0 4.0 0.00 0.00 0.00 88 1020.4
20260906012604 71 90 2.0 4.0 0.00 0.00 0.00 88 1020.4
20260906012504 71 90 2.0 4.0 0.00 0.00 0.00 88 1020.4
20260906012404 71 68 2.0 4.0 0.00 0.00 0.00 88 1020.2
20260906012306 71 135 2.0 2.0 0.00 0.00 0.00 88 1020.3
20260906012204 71 112 2.0 4.0 0.00 0.00 0.00 87 1020.4
20260906012104 71 135 2.0 4.0 0.00 0.00 0.00 87 1020.4
20260906012003 71 112 3.0 4.0 0.00 0.00 0.00 87 1020.3
20260906011903 72 135 0.0 0.0 0.00 0.00 0.00 87 1020.1
20260906011804 72 112 0.0 0.0 0.00 0.00 0.00 87 1020.2
20260906011704 72 90 0.0 0.0 0.00 0.00 0.00 87 1020.3
20260906011603 72 112 0.0 0.0 0.00 0.00 0.00 87 1020.6
20260906011504 72 68 1.0 2.0 0.00 0.00 0.00 87 1020.4
20260906011404 72 68 1.0 2.0 0.00 0.00 0.00 87 1020.4
20260906011303 72 90 1.0 2.0 0.00 0.00 0.00 87 1020.3
20260906011204 72 90 0.0 2.0 0.00 0.00 0.00 87 1020.3
20260906011104 72 112 1.0 2.0 0.00 0.00 0.00 87 1020.3
20260906011004 72 68 2.0 2.0 0.00 0.00 0.00 87 1020.5
20260906010904 72 90 2.0 2.0 0.00 0.00 0.00 87 1020.3
20260906010805 72 90 2.0 2.0 0.00 0.00 0.00 87 1020.3
20260906010704 72 112 2.0 2.0 0.00 0.00 0.00 87 1020.4
20260906010604 72 112 2.0 2.0 0.00 0.00 0.00 86 1020.2
20260906010504 72 112 2.0 2.0 0.00 0.00 0.00 86 1020.5
20260906010404 72 112 1.0 2.0 0.00 0.00 0.00 86 1020.4
20260906010304 73 135 1.0 2.0 0.00 0.00 0.00 86 1020.2
20260906010205 73 112 1.0 2.0 0.00 0.00 0.00 86 1020.4
20260906010104 73 112 1.0 2.0 0.00 0.00 0.00 86 1020.2
20260906010004 73 112 1.0 2.0 0.00 0.00 0.00 86 1020.2
20260906005904 73 90 1.0 2.0 0.00 0.00 0.00 86 1020.3
20260906005804 73 112 1.0 2.0 0.00 0.00 0.00 86 1020.4
20260906005704 73 90 2.0 2.0 0.00 0.00 0.00 86 1020.3
20260906005604 73 90 2.0 2.0 0.00 0.00 0.00 86 1020.4
20260906005503 73 68 2.0 4.0 0.00 0.00 0.00 86 1020.2
20260906005404 73 68 2.0 4.0 0.00 0.00 0.00 86 1020.1
20260906005306 73 90 2.0 2.0 0.00 0.00 0.00 85 1020.0
20260906005203 73 68 2.0 4.0 0.00 0.00 0.00 85 1020.3
20260906005103 73 68 2.0 4.0 0.00 0.00 0.00 85 1020.2
20260906005003 73 68 2.0 4.0 0.00 0.00 0.00 85 1020.2
20260906004904 73 68 2.0 2.0 0.00 0.00 0.00 85 1020.3
20260906004803 73 68 1.0 4.0 0.00 0.00 0.00 85 1020.1
20260906004703 73 90 2.0 4.0 0.00 0.00 0.00 85 1020.1
20260906004604 73 68 2.0 4.0 0.00 0.00 0.00 85 1020.3
20260906004503 73 68 2.0 2.0 0.00 0.00 0.00 85 1020.3
20260906004403 73 90 2.0 4.0 0.00 0.00 0.00 85 1020.4
20260906004303 73 90 2.0 4.0 0.00 0.00 0.00 85 1020.2
20260906004203 73 68 2.0 2.0 0.00 0.00 0.00 85 1020.3
20260906004104 73 68 2.0 2.0 0.00 0.00 0.00 85 1020.3
20260906004004 73 90 2.0 4.0 0.00 0.00 0.00 85 1020.2
20260906003904 73 68 3.0 4.0 0.00 0.00 0.00 85 1020.2
20260906003803 74 90 2.0 4.0 0.00 0.00 0.00 85 1020.2
20260906003703 74 68 2.0 4.0 0.00 0.00 0.00 84 1020.4
20260906003604 73 68 2.0 4.0 0.00 0.00 0.00 84 1020.4
20260906003504 73 90 1.0 2.0 0.00 0.00 0.00 84 1020.3
20260906003404 74 90 2.0 2.0 0.00 0.00 0.00 84 1020.3
20260906003305 73 68 2.0 2.0 0.00 0.00 0.00 84 1020.1
20260906003204 74 112 2.0 2.0 0.00 0.00 0.00 84 1020.2
20260906003104 74 90 0.0 0.0 0.00 0.00 0.00 84 1020.3
20260906003003 74 68 0.0 0.0 0.00 0.00 0.00 84 1020.1
20260906002903 74 68 0.0 0.0 0.00 0.00 0.00 84 1020.2
20260906002803 74 68 0.0 2.0 0.00 0.00 0.00 84 1020.1
20260906002704 74 68 0.0 0.0 0.00 0.00 0.00 84 1020.1
20260906002604 74 90 1.0 2.0 0.00 0.00 0.00 83 1020.0
20260906002503 74 68 1.0 2.0 0.00 0.00 0.00 83 1020.4
20260906002404 74 45 2.0 4.0 0.00 0.00 0.00 83 1020.4
20260906002306 74 45 3.0 4.0 0.00 0.00 0.00 83 1020.5
20260906002203 74 45 2.0 2.0 0.00 0.00 0.00 83 1020.5
20260906002104 73 45 2.0 4.0 0.00 0.00 0.00 83 1020.6
20260906002004 73 45 2.0 4.0 0.00 0.00 0.00 83 1020.3
20260906001904 73 45 2.0 4.0 0.00 0.00 0.00 83 1020.1
20260906001804 73 22 2.0 2.0 0.00 0.00 0.00 83 1020.1
20260906001704 73 90 1.0 2.0 0.00 0.00 0.00 83 1020.3
20260906001604 73 68 2.0 4.0 0.00 0.00 0.00 83 1020.3
20260906001504 73 90 2.0 4.0 0.00 0.00 0.00 84 1020.5
20260906001404 73 90 2.0 2.0 0.00 0.00 0.00 84 1020.3
20260906001304 73 68 0.0 2.0 0.00 0.00 0.00 84 1020.5
20260906001204 73 68 2.0 2.0 0.00 0.00 0.00 84 1020.3
20260906001104 73 68 1.0 2.0 0.00 0.00 0.00 84 1020.5
20260906001003 73 90 2.0 4.0 0.00 0.00 0.00 84 1020.5
20260906000904 73 68 2.0 2.0 0.00 0.00 0.00 84 1020.3
20260906000804 73 90 2.0 2.0 0.00 0.00 0.00 84 1020.5
20260906000704 73 68 2.0 4.0 0.00 0.00 0.00 84 1020.6
20260906000604 73 68 2.0 2.0 0.00 0.00 0.00 84 1020.6
20260906000503 73 90 2.0 2.0 0.00 0.00 0.00 84 1020.5
20260906000404 73 90 2.0 2.0 0.00 0.00 0.00 84 1020.5
20260906000304 73 90 2.0 2.0 0.00 0.00 0.00 84 1020.5
20260906000204 73 90 2.0 2.0 0.00 0.00 0.00 84 1020.4
20260906000103 73 90 2.0 2.0 0.00 0.00 0.00 84 1020.3
20260906000004 73 90 2.0 2.0 0.00 0.00 0.00 84 1020.6
20260905235903 73 90 2.0 2.0 0.00 0.00 0.00 84 1020.2
20260905235804 73 68 2.0 4.0 0.00 0.00 0.00 84 1020.6
20260905235703 73 68 2.0 2.0 0.00 0.00 0.00 84 1020.3
20260905235603 73 90 2.0 2.0 0.00 0.00 0.00 85 1020.4
20260905235503 73 45 2.0 4.0 0.00 0.00 0.00 85 1020.3
20260905235404 73 90 2.0 2.0 0.00 0.00 0.00 85 1020.5
20260905235306 73 45 2.0 4.0 0.00 0.00 0.00 85 1020.5
20260905235204 73 90 4.0 6.0 0.00 0.00 0.00 85 1020.5
20260905235104 73 112 2.0 4.0 0.00 0.00 0.00 85 1020.4
20260905235004 73 68 3.0 4.0 0.00 0.00 0.00 85 1020.5
20260905234904 73 68 0.0 4.0 0.00 0.00 0.00 85 1020.5
20260905234804 73 112 2.0 2.0 0.00 0.00 0.00 85 1020.5
20260905234704 74 112 0.0 0.0 0.00 0.00 0.00 84 1020.6
20260905234603 74 22 0.0 0.0 0.00 0.00 0.00 84 1020.5
20260905234504 74 90 0.0 2.0 0.00 0.00 0.00 84 1020.4
20260905234404 74 90 1.0 2.0 0.00 0.00 0.00 84 1020.6
20260905234304 74 68 1.0 2.0 0.00 0.00 0.00 84 1020.5
20260905234204 74 68 1.0 2.0 0.00 0.00 0.00 84 1020.6
20260905234103 74 112 1.0 2.0 0.00 0.00 0.00 84 1020.6
20260905234004 74 112 2.0 2.0 0.00 0.00 0.00 84 1020.5
20260905233904 74 90 2.0 2.0 0.00 0.00 0.00 84 1020.5
20260905233803 74 45 1.0 2.0 0.00 0.00 0.00 84 1020.5
20260905233703 74 45 1.0 2.0 0.00 0.00 0.00 84 1020.4
20260905233604 74 68 2.0 4.0 0.00 0.00 0.00 84 1020.6
20260905233503 74 90 2.0 2.0 0.00 0.00 0.00 84 1020.8
20260905233403 74 90 2.0 2.0 0.00 0.00 0.00 84 1020.4
20260905233304 74 112 2.0 2.0 0.00 0.00 0.00 84 1020.5
20260905233203 74 68 2.0 2.0 0.00 0.00 0.00 84 1020.2
20260905233104 74 90 2.0 2.0 0.00 0.00 0.00 84 1020.4
20260905233004 74 90 2.0 2.0 0.00 0.00 0.00 84 1020.1
20260905232904 74 68 2.0 2.0 0.00 0.00 0.00 84 1020.7
20260905232804 74 45 2.0 2.0 0.00 0.00 0.00 84 1020.5
20260905232703 74 90 2.0 4.0 0.00 0.00 0.00 84 1020.4
20260905232604 74 112 1.0 2.0 0.00 0.00 0.00 84 1020.5
20260905232505 74 90 2.0 4.0 0.00 0.00 0.00 83 1020.2
20260905232404 74 112 2.0 4.0 0.00 0.00 0.00 83 1020.4
20260905232306 74 90 2.0 4.0 0.00 0.00 0.00 83 1020.6
20260905232204 74 90 2.0 2.0 0.00 0.00 0.00 83 1020.7
20260905232104 74 68 2.0 2.0 0.00 0.00 0.00 83 1020.4
20260905232003 74 90 2.0 2.0 0.00 0.00 0.00 83 1020.5
20260905231903 74 90 0.0 0.0 0.00 0.00 0.00 83 1020.3
20260905231804 74 68 0.0 2.0 0.00 0.00 0.00 83 1020.4
20260905231704 74 90 0.0 0.0 0.00 0.00 0.00 83 1020.3
20260905231603 74 90 1.0 2.0 0.00 0.00 0.00 83 1020.4
20260905231504 74 68 1.0 2.0 0.00 0.00 0.00 84 1020.5
20260905231403 74 68 2.0 2.0 0.00 0.00 0.00 84 1020.5
20260905231304 74 68 2.0 4.0 0.00 0.00 0.00 84 1020.5
20260905231204 74 68 1.0 2.0 0.00 0.00 0.00 84 1020.5
20260905231104 74 45 2.0 2.0 0.00 0.00 0.00 84 1020.8
20260905231004 74 45 2.0 4.0 0.00 0.00 0.00 84 1020.6
20260905230904 74 68 2.0 4.0 0.00 0.00 0.00 84 1020.7
20260905230804 74 68 2.0 4.0 0.00 0.00 0.00 84 1020.6
20260905230704 74 45 1.0 2.0 0.00 0.00 0.00 84 1020.5
20260905230604 74 45 0.0 0.0 0.00 0.00 0.00 84 1020.7
20260905230504 74 90 0.0 0.0 0.00 0.00 0.00 84 1020.8
20260905230404 74 45 0.0 0.0 0.00 0.00 0.00 84 1020.8
20260905230305 74 90 0.0 0.0 0.00 0.00 0.00 84 1020.5
20260905230204 74 112 0.0 2.0 0.00 0.00 0.00 83 1020.5
20260905230104 74 90 1.0 2.0 0.00 0.00 0.00 83 1020.4
20260905230004 74 90 1.0 2.0 0.00 0.00 0.00 83 1020.5
20260905225904 74 90 2.0 4.0 0.00 0.00 0.00 83 1020.6
20260905225804 74 68 1.0 2.0 0.00 0.00 0.00 83 1020.6
20260905225704 74 90 0.0 2.0 0.00 0.00 0.00 83 1020.7
20260905225604 74 90 1.0 2.0 0.00 0.00 0.00 83 1020.5
20260905225504 74 90 0.0 0.0 0.00 0.00 0.00 83 1020.5
20260905225404 74 112 0.0 0.0 0.00 0.00 0.00 83 1020.4
20260905225306 74 90 0.0 0.0 0.00 0.00 0.00 83 1020.4
20260905225203 74 112 0.0 0.0 0.00 0.00 0.00 83 1020.5
20260905225103 74 112 0.0 0.0 0.00 0.00 0.00 83 1020.6
20260905225003 74 112 0.0 0.0 0.00 0.00 0.00 83 1020.5
20260905224903 74 90 0.0 0.0 0.00 0.00 0.00 82 1020.5
20260905224803 74 90 0.0 2.0 0.00 0.00 0.00 82 1020.5
20260905224704 74 68 1.0 4.0 0.00 0.00 0.00 82 1020.5
20260905224603 74 68 0.0 0.0 0.00 0.00 0.00 82 1020.8
20260905224503 74 90 0.0 0.0 0.00 0.00 0.00 82 1020.7
20260905224403 74 90 0.0 0.0 0.00 0.00 0.00 82 1020.6
20260905224303 74 45 0.0 0.0 0.00 0.00 0.00 82 1020.5
20260905224204 74 90 0.0 0.0 0.00 0.00 0.00 82 1020.5
20260905224104 74 68 0.0 0.0 0.00 0.00 0.00 82 1020.7
20260905224004 74 68 0.0 0.0 0.00 0.00 0.00 82 1020.7
20260905223904 74 90 0.0 0.0 0.00 0.00 0.00 82 1020.6
20260905223804 74 90 0.0 0.0 0.00 0.00 0.00 82 1020.6
20260905223703 74 135 0.0 0.0 0.00 0.00 0.00 82 1020.3
20260905223604 74 135 0.0 0.0 0.00 0.00 0.00 82 1020.8
20260905223504 74 158 0.0 0.0 0.00 0.00 0.00 82 1020.6
20260905223404 74 112 0.0 0.0 0.00 0.00 0.00 82 1020.5
20260905223303 74 135 0.0 0.0 0.00 0.00 0.00 81 1020.5
20260905223204 74 112 1.0 2.0 0.00 0.00 0.00 82 1020.4
20260905223103 74 90 1.0 2.0 0.00 0.00 0.00 81 1020.6
20260905223004 74 45 2.0 2.0 0.00 0.00 0.00 81 1020.3
20260905222904 74 90 2.0 4.0 0.00 0.00 0.00 81 1020.5
20260905222804 74 45 0.0 0.0 0.00 0.00 0.00 81 1020.5
20260905222703 74 112 2.0 2.0 0.00 0.00 0.00 81 1020.3
20260905222604 74 112 2.0 2.0 0.00 0.00 0.00 81 1020.3
20260905222504 74 90 1.0 2.0 0.00 0.00 0.00 81 1020.4
20260905222403 74 90 1.0 2.0 0.00 0.00 0.00 81 1020.4
20260905222306 74 90 2.0 2.0 0.00 0.00 0.00 81 1020.2
20260905222203 74 68 2.0 2.0 0.00 0.00 0.00 81 1020.3
20260905222104 74 90 2.0 4.0 0.00 0.00 0.00 81 1020.4
20260905222004 74 90 0.0 0.0 0.00 0.00 0.00 81 1020.3
20260905221903 74 45 0.0 0.0 0.00 0.00 0.00 81 1020.5
20260905221804 74 248 0.0 0.0 0.00 0.00 0.00 81 1020.4
20260905221704 74 112 0.0 0.0 0.00 0.00 0.00 81 1020.3
20260905221604 74 45 0.0 0.0 0.00 0.00 0.00 80 1020.4
20260905221504 74 90 0.0 0.0 0.00 0.00 0.00 80 1020.3
20260905221405 74 90 0.0 0.0 0.00 0.00 0.00 80 1020.8
20260905221304 74 112 0.0 0.0 0.00 0.00 0.00 80 1020.4
20260905221205 74 112 0.0 0.0 0.00 0.00 0.00 80 1020.4
20260905221104 74 112 0.0 0.0 0.00 0.00 0.00 80 1020.4
20260905221004 74 112 0.0 0.0 0.00 0.00 0.00 80 1020.4
20260905220904 74 112 0.0 0.0 0.00 0.00 0.00 80 1020.2
20260905220803 74 112 0.0 0.0 0.00 0.00 0.00 80 1020.2
20260905220703 74 135 0.0 0.0 0.00 0.00 0.00 80 1020.3
20260905220603 74 90 0.0 0.0 0.00 0.00 0.00 80 1020.3
20260905220503 74 112 0.0 0.0 0.00 0.00 0.00 80 1020.2
20260905220403 75 90 0.0 0.0 0.00 0.00 0.00 80 1020.2
20260905220303 75 112 0.0 0.0 0.00 0.00 0.00 80 1020.3
20260905220204 75 112 0.0 0.0 0.00 0.00 0.00 80 1020.4
20260905220104 75 135 0.0 0.0 0.00 0.00 0.00 80 1020.4
20260905220005 75 112 0.0 0.0 0.00 0.00 0.00 80 1020.1
20260905215904 75 90 0.0 0.0 0.00 0.00 0.00 80 1020.2
20260905215805 74 90 0.0 0.0 0.00 0.00 0.00 80 1020.0
20260905215704 75 90 0.0 0.0 0.00 0.00 0.00 81 1020.1
20260905215604 75 90 0.0 0.0 0.00 0.00 0.00 81 1020.4
20260905215505 75 90 0.0 0.0 0.00 0.00 0.00 81 1020.1
20260905215404 75 112 0.0 0.0 0.00 0.00 0.00 81 1020.3
20260905215306 75 135 0.0 0.0 0.00 0.00 0.00 81 1020.0
20260905215205 75 158 0.0 0.0 0.00 0.00 0.00 81 1020.2
20260905215104 75 248 0.0 0.0 0.00 0.00 0.00 80 1020.2
20260905215004 75 248 0.0 0.0 0.00 0.00 0.00 80 1020.3
20260905214904 75 270 0.0 0.0 0.00 0.00 0.00 80 1020.2
20260905214804 75 270 0.0 0.0 0.00 0.00 0.00 80 1020.2
20260905214704 75 158 0.0 0.0 0.00 0.00 0.00 80 1019.9
20260905214603 75 90 0.0 0.0 0.00 0.00 0.00 79 1020.2
20260905214504 75 112 0.0 0.0 0.00 0.00 0.00 80 1020.2
20260905214404 75 112 0.0 0.0 0.00 0.00 0.00 80 1019.9
20260905214303 75 270 0.0 0.0 0.00 0.00 0.00 81 1020.2
20260905214204 75 270 0.0 0.0 0.00 0.00 0.00 81 1020.3
20260905214104 75 270 0.0 0.0 0.00 0.00 0.00 80 1020.1
20260905214003 75 248 0.0 0.0 0.00 0.00 0.00 81 1020.1
20260905213904 75 248 0.0 0.0 0.00 0.00 0.00 81 1020.1
20260905213803 75 248 0.0 0.0 0.00 0.00 0.00 81 1020.1
20260905213703 75 248 0.0 0.0 0.00 0.00 0.00 81 1019.8
20260905213603 75 248 0.0 0.0 0.00 0.00 0.00 81 1020.2
20260905213503 75 202 0.0 0.0 0.00 0.00 0.00 81 1020.2
20260905213404 76 225 0.0 0.0 0.00 0.00 0.00 81 1019.9
20260905213304 76 158 0.0 0.0 0.00 0.00 0.00 81 1020.1
20260905213204 76 112 0.0 0.0 0.00 0.00 0.00 82 1020.1
20260905213103 75 112 0.0 0.0 0.00 0.00 0.00 82 1020.1
20260905213005 76 112 0.0 0.0 0.00 0.00 0.00 82 1020.1
20260905212904 76 112 0.0 0.0 0.00 0.00 0.00 82 1020.0
20260905212804 76 135 0.0 0.0 0.00 0.00 0.00 82 1020.1
20260905212704 76 158 0.0 0.0 0.00 0.00 0.00 83 1020.0
20260905212604 76 202 2.0 2.0 0.00 0.00 0.00 83 1020.1
20260905212504 76 225 2.0 2.0 0.00 0.00 0.00 83 1019.8
20260905212404 76 270 2.0 4.0 0.00 0.00 0.00 83 1019.8
20260905212306 76 90 0.0 0.0 0.00 0.00 0.00 83 1019.9
20260905212204 76 68 2.0 2.0 0.00 0.00 0.00 83 1019.9
20260905212103 76 68 2.0 4.0 0.00 0.00 0.00 83 1019.8
20260905212003 76 68 0.0 0.0 0.00 0.00 0.00 83 1020.2
20260905211904 76 90 0.0 0.0 0.00 0.00 0.00 83 1020.0
20260905211804 76 112 0.0 0.0 0.00 0.00 0.00 83 1019.9
20260905211703 76 112 0.0 0.0 0.00 0.00 0.00 83 1020.0
20260905211603 76 112 0.0 0.0 0.00 0.00 0.00 83 1020.0
20260905211503 76 112 0.0 0.0 0.00 0.00 0.00 83 1019.8
20260905211403 76 158 0.0 0.0 0.00 0.00 0.00 83 1020.1
20260905211304 76 112 0.0 0.0 0.00 0.00 0.00 83 1019.7
20260905211203 76 112 0.0 0.0 0.00 0.00 0.00 83 1020.2
20260905211104 76 112 0.0 0.0 0.00 0.00 0.00 83 1020.0
20260905211004 76 112 0.0 0.0 0.00 0.00 0.00 83 1019.9
20260905210905 76 248 0.0 0.0 0.00 0.00 0.00 83 1020.1
20260905210804 76 225 0.0 0.0 0.00 0.00 0.00 83 1019.9
20260905210705 76 225 0.0 0.0 0.00 0.00 0.00 83 1019.9
20260905210604 76 225 0.0 0.0 0.00 0.00 0.00 83 1020.0
20260905210504 76 225 0.0 0.0 0.00 0.00 0.00 83 1019.7
20260905210405 76 225 0.0 0.0 0.00 0.00 0.00 83 1019.9
20260905210304 76 248 0.0 0.0 0.00 0.00 0.00 83 1020.0
20260905210204 76 270 0.0 0.0 0.00 0.00 0.00 83 1020.0
20260905210104 76 68 0.0 0.0 0.00 0.00 0.00 83 1020.0
20260905210004 76 90 0.0 0.0 0.00 0.00 0.00 83 1019.8
20260905205903 77 68 0.0 0.0 0.00 0.00 0.00 83 1019.9
20260905205803 77 68 0.0 0.0 0.00 0.00 0.00 83 1019.9
20260905205704 77 68 0.0 0.0 0.00 0.00 0.00 83 1019.9
20260905205604 76 315 0.0 0.0 0.00 0.00 0.00 83 1019.9
20260905205503 76 292 0.0 0.0 0.00 0.00 0.00 83 1020.0
20260905205403 77 292 0.0 0.0 0.00 0.00 0.00 83 1019.8
20260905205306 77 292 0.0 0.0 0.00 0.00 0.00 83 1020.0
20260905205204 77 292 0.0 0.0 0.00 0.00 0.00 83 1019.8
20260905205104 77 248 0.0 0.0 0.00 0.00 0.00 83 1019.6
20260905205003 77 248 0.0 0.0 0.00 0.00 0.00 83 1019.8
20260905204903 77 248 0.0 0.0 0.00 0.00 0.00 83 1019.8
20260905204804 77 248 0.0 0.0 0.00 0.00 0.00 83 1019.6
20260905204703 77 270 0.0 0.0 0.00 0.00 0.00 82 1019.8
20260905204603 77 292 0.0 0.0 0.00 0.00 0.00 82 1020.1
20260905204503 77 292 0.0 0.0 0.00 0.00 0.00 82 1020.0
20260905204403 77 292 0.0 0.0 0.00 0.00 0.00 82 1019.8
20260905204304 77 292 0.0 0.0 0.00 0.00 0.00 82 1019.8
20260905204203 77 292 0.0 0.0 0.00 0.00 0.00 82 1019.8
20260905204104 77 292 0.0 0.0 0.00 0.00 0.00 82 1019.6
20260905204004 77 315 0.0 0.0 0.00 0.00 0.00 81 1019.9
20260905203904 77 270 0.0 0.0 0.00 0.00 0.00 82 1019.9
20260905203804 77 292 0.0 0.0 0.00 0.00 0.00 81 1019.8
20260905203703 77 68 0.0 0.0 0.00 0.00 0.00 81 1019.7
20260905203604 77 68 0.0 0.0 0.00 0.00 0.00 81 1020.0
20260905203504 77 68 0.0 0.0 0.00 0.00 0.00 81 1019.9
20260905203403 77 68 0.0 0.0 0.00 0.00 0.00 81 1019.9
20260905203304 77 68 0.0 0.0 0.00 0.00 0.00 81 1019.7
20260905203204 77 68 0.0 0.0 0.00 0.00 0.00 81 1019.8
20260905203103 77 68 0.0 0.0 0.00 0.00 0.00 80 1019.9
20260905203003 77 68 0.0 0.0 0.00 0.00 0.00 80 1019.9
20260905202903 77 68 0.0 0.0 0.00 0.00 0.00 80 1019.8
20260905202803 77 68 0.0 0.0 0.00 0.00 0.00 80 1020.1
20260905202704 77 68 0.0 0.0 0.00 0.00 0.00 80 1019.8
20260905202604 77 68 0.0 0.0 0.00 0.00 0.00 80 1019.7
20260905202503 77 68 0.0 0.0 0.00 0.00 0.00 80 1019.9
20260905202403 77 68 0.0 0.0 0.00 0.00 0.00 80 1020.1
20260905202306 77 45 0.0 0.0 0.00 0.00 0.00 80 1019.6
20260905202203 77 68 0.0 0.0 0.00 0.00 0.00 80 1019.9
20260905202104 77 68 0.0 0.0 0.00 0.00 0.00 80 1019.7
20260905202004 77 45 0.0 2.0 0.00 0.00 0.00 80 1019.7
20260905201904 77 45 0.0 0.0 0.00 0.00 0.00 80 1019.9
20260905201804 77 68 0.0 0.0 0.00 0.00 0.00 80 1019.7
20260905201705 77 90 0.0 0.0 0.00 0.00 0.00 80 1019.8
20260905201604 77 90 0.0 0.0 0.00 0.00 0.00 80 1020.0
20260905201504 77 90 0.0 2.0 0.00 0.00 0.00 80 1019.7
20260905201404 77 68 0.0 0.0 0.00 0.00 0.00 80 1019.9
20260905201304 77 68 0.0 0.0 0.00 0.00 0.00 80 1019.7
20260905201204 77 90 0.0 0.0 0.00 0.00 0.00 79 1019.7
20260905201104 77 315 0.0 0.0 0.00 0.00 0.00 79 1019.9
20260905201003 77 270 0.0 2.0 0.00 0.00 0.00 79 1019.7
20260905200903 77 270 0.0 0.0 0.00 0.00 0.00 79 1019.7
20260905200804 78 90 0.0 0.0 0.00 0.00 0.00 79 1019.7
20260905200703 78 270 1.0 2.0 0.00 0.00 0.00 79 1019.9
20260905200603 78 270 0.0 0.0 0.00 0.00 0.00 79 1019.8
20260905200504 78 248 0.0 0.0 0.00 0.00 0.00 79 1019.8
20260905200404 78 270 0.0 2.0 0.00 0.00 0.00 79 1019.6
20260905200303 78 270 0.0 0.0 0.00 0.00 0.00 79 1019.6
20260905200204 78 248 0.0 0.0 0.00 0.00 0.00 79 1019.8
20260905200105 78 270 0.0 2.0 0.00 0.00 0.00 79 1019.8
20260905200004 78 270 0.0 0.0 0.00 0.00 0.00 79 1019.8
20260905195904 78 270 0.0 0.0 0.00 0.00 0.00 79 1019.7
20260905195804 78 270 0.0 0.0 0.00 0.00 0.00 79 1019.7
20260905195705 78 292 0.0 0.0 0.00 0.00 0.00 78 1019.6
20260905195604 78 270 0.0 0.0 0.00 0.00 0.00 78 1019.7
20260905195505 78 270 0.0 0.0 0.00 0.00 0.00 78 1019.8
20260905195404 78 270 0.0 0.0 0.00 0.00 0.00 78 1019.8
20260905195306 78 270 0.0 0.0 0.00 0.00 0.00 78 1019.7
20260905195204 78 270 0.0 0.0 0.00 0.00 0.00 78 1019.6
20260905195104 78 292 0.0 0.0 0.00 0.00 0.00 78 1019.8
20260905195004 78 270 0.0 0.0 0.00 0.00 0.00 78 1019.7
20260905194904 78 270 0.0 0.0 0.00 0.00 0.00 78 1019.9
20260905194804 78 270 0.0 0.0 0.00 0.00 0.00 78 1019.9
20260905194704 78 45 1.0 2.0 0.00 0.00 0.00 78 1019.9
20260905194604 78 292 0.0 0.0 0.00 0.00 0.00 78 1019.9
20260905194504 78 270 0.0 0.0 0.00 0.00 0.00 78 1019.9
20260905194403 78 292 0.0 0.0 0.00 0.00 0.00 78 1019.8
20260905194304 78 270 1.0 2.0 0.00 0.00 0.00 78 1019.8
20260905194204 78 292 2.0 4.0 0.00 0.00 0.00 78 1019.6
20260905194103 78 292 0.0 0.0 0.00 0.00 0.00 78 1019.7
20260905194004 78 270 0.0 0.0 0.00 0.00 0.00 78 1019.6
20260905193903 78 292 0.0 0.0 0.00 0.00 0.00 78 1019.9
20260905193803 78 292 0.0 2.0 0.00 0.00 0.00 78 1019.8
20260905193704 78 248 2.0 2.0 0.00 0.00 0.00 78 1019.7
20260905193603 78 292 1.0 2.0 0.00 0.00 0.00 78 1019.7
20260905193503 78 270 0.0 0.0 0.00 0.00 0.00 78 1019.8
20260905193403 78 270 0.0 0.0 0.00 0.00 0.00 78 1019.8
20260905193304 78 270 0.0 0.0 0.00 0.00 0.00 78 1019.7
20260905193203 78 270 0.0 0.0 0.00 0.00 0.00 78 1019.6
20260905193104 78 270 0.0 0.0 0.00 0.00 0.00 78 1019.6
20260905193004 78 270 0.0 0.0 0.00 0.00 0.00 78 1019.7
20260905192903 78 270 1.0 2.0 0.00 0.00 0.00 77 1019.5
20260905192804 78 292 1.0 2.0 0.00 0.00 0.00 77 1019.5
20260905192704 78 248 0.0 0.0 0.00 0.00 0.00 77 1019.4
20260905192604 78 248 0.0 0.0 0.00 0.00 0.00 77 1019.5
20260905192504 78 270 0.0 0.0 0.00 0.00 0.00 77 1019.5
20260905192404 78 270 0.0 0.0 0.00 0.00 0.00 77 1019.8
20260905192306 78 270 0.0 2.0 0.00 0.00 0.00 77 1019.5
20260905192204 78 270 0.0 0.0 0.00 0.00 0.00 77 1019.5
20260905192103 78 270 0.0 0.0 0.00 0.00 0.00 77 1019.5
20260905192004 78 248 1.0 4.0 0.00 0.00 0.00 77 1019.6
20260905191903 78 292 2.0 4.0 0.00 0.00 0.00 77 1019.7
20260905191803 78 292 1.0 2.0 0.00 0.00 0.00 77 1019.6
20260905191704 78 292 0.0 0.0 0.00 0.00 0.00 77 1019.6
20260905191604 78 270 1.0 2.0 0.00 0.00 0.00 77 1019.4
20260905191504 79 292 2.0 4.0 0.00 0.00 0.00 77 1019.6
20260905191404 79 270 1.0 2.0 0.00 0.00 0.00 77 1019.4
20260905191303 79 270 0.0 2.0 0.00 0.00 0.00 77 1019.3
20260905191203 78 270 2.0 2.0 0.00 0.00 0.00 77 1019.3
20260905191104 79 292 1.0 4.0 0.00 0.00 0.00 77 1019.3
20260905191004 78 248 2.0 4.0 0.00 0.00 0.00 77 1019.4
20260905190904 79 292 1.0 4.0 0.00 0.00 0.00 77 1019.5
20260905190804 78 68 1.0 2.0 0.00 0.00 0.00 76 1019.6
20260905190704 79 292 0.0 2.0 0.00 0.00 0.00 76 1019.4
20260905190604 79 248 0.0 0.0 0.00 0.00 0.00 76 1019.5
20260905190504 79 270 0.0 0.0 0.00 0.00 0.00 76 1019.5
20260905190404 79 248 0.0 0.0 0.00 0.00 0.00 76 1019.4
20260905190304 79 248 0.0 0.0 0.00 0.00 0.00 76 1019.3
20260905190204 79 270 1.0 2.0 0.00 0.00 0.00 76 1019.3
20260905190104 79 292 1.0 4.0 0.00 0.00 0.00 76 1019.3
20260905190004 79 270 0.0 0.0 0.00 0.00 0.00 76 1019.5
20260905185904 79 248 0.0 2.0 0.00 0.00 0.00 76 1019.5
20260905185804 79 270 1.0 2.0 0.00 0.00 0.00 76 1019.4
20260905185704 79 248 0.0 0.0 0.00 0.00 0.00 76 1019.2
20260905185604 79 248 0.0 2.0 0.00 0.00 0.00 76 1019.3
20260905185503 79 90 0.0 0.0 0.00 0.00 0.00 76 1019.4
20260905185404 79 248 0.0 2.0 0.00 0.00 0.00 76 1019.4
20260905185306 79 292 0.0 2.0 0.00 0.00 0.00 76 1019.4
20260905185204 79 292 2.0 2.0 0.00 0.00 0.00 76 1019.2
20260905185104 79 292 0.0 2.0 0.00 0.00 0.00 76 1019.3
20260905185003 79 270 0.0 2.0 0.00 0.00 0.00 76 1019.2
20260905184904 79 45 0.0 0.0 0.00 0.00 0.00 75 1019.5
20260905184803 79 248 0.0 2.0 0.00 0.00 0.00 75 1019.3
20260905184604 79 225 0.0 0.0 0.00 0.00 0.00 75 1019.4
20260905184503 79 270 0.0 0.0 0.00 0.00 0.00 75 1019.5
20260905184404 79 180 0.0 0.0 0.00 0.00 0.00 75 1019.4
20260905184303 79 248 1.0 2.0 0.00 0.00 0.00 75 1019.3
20260905184203 79 68 1.0 2.0 0.00 0.00 0.00 75 1019.4
20260905184104 79 292 2.0 4.0 0.00 0.00 0.00 75 1019.4
20260905184004 79 90 2.0 4.0 0.00 0.00 0.00 75 1019.3
20260905183904 79 292 2.0 4.0 0.00 0.00 0.00 75 1019.3
20260905183804 79 292 2.0 4.0 0.00 0.00 0.00 75 1019.4
20260905183704 79 270 2.0 4.0 0.00 0.00 0.00 75 1019.2
20260905183603 79 270 0.0 2.0 0.00 0.00 0.00 75 1019.2
20260905183504 79 270 2.0 4.0 0.00 0.00 0.00 75 1019.2
20260905183404 79 270 2.0 4.0 0.00 0.00 0.00 75 1019.2
20260905183305 79 270 2.0 4.0 0.00 0.00 0.00 75 1019.2
20260905183204 79 292 2.0 4.0 0.00 0.00 0.00 75 1019.1
20260905183104 80 68 2.0 2.0 0.00 0.00 0.00 75 1019.2
20260905183004 80 292 2.0 4.0 0.00 0.00 0.00 75 1019.3
20260905182903 79 315 2.0 6.0 0.00 0.00 0.00 75 1019.2
20260905182804 80 248 2.0 4.0 0.00 0.00 0.00 75 1019.1
20260905182703 80 22 1.0 2.0 0.00 0.00 0.00 75 1019.2
20260905182603 80 292 2.0 4.0 0.00 0.00 0.00 74 1019.1
20260905182503 80 292 2.0 4.0 0.00 0.00 0.00 74 1019.3
20260905182403 80 292 3.0 6.0 0.00 0.00 0.00 74 1019.2
20260905182306 80 292 2.0 4.0 0.00 0.00 0.00 74 1019.2
20260905182204 80 292 1.0 4.0 0.00 0.00 0.00 74 1019.4
20260905182104 80 315 3.0 6.0 0.00 0.00 0.00 74 1019.2
20260905182004 80 292 3.0 4.0 0.00 0.00 0.00 74 1019.2
20260905181904 80 315 4.0 6.0 0.00 0.00 0.00 74 1019.3
20260905181804 80 292 2.0 4.0 0.00 0.00 0.00 74 1018.9
20260905181704 80 292 2.0 7.0 0.00 0.00 0.00 74 1018.9
20260905181604 80 292 3.0 4.0 0.00 0.00 0.00 74 1019.0
20260905181504 80 292 1.0 2.0 0.00 0.00 0.00 73 1019.1
20260905181404 80 248 2.0 4.0 0.00 0.00 0.00 73 1019.2
20260905181305 80 270 2.0 4.0 0.00 0.00 0.00 73 1019.0
20260905181204 80 112 1.0 2.0 0.00 0.00 0.00 73 1019.1
20260905181103 80 270 2.0 2.0 0.00 0.00 0.00 73 1019.1
20260905181004 80 202 1.0 4.0 0.00 0.00 0.00 73 1019.0
20260905180904 80 292 2.0 6.0 0.00 0.00 0.00 73 1019.0
20260905180804 80 292 2.0 2.0 0.00 0.00 0.00 73 1019.1
20260905180704 80 270 2.0 4.0 0.00 0.00 0.00 73 1019.1
20260905180603 80 292 4.0 7.0 0.00 0.00 0.00 72 1019.0
20260905180504 81 315 1.0 4.0 0.00 0.00 0.00 72 1019.1
20260905180404 81 315 1.0 4.0 0.00 0.00 0.00 72 1018.8
20260905180304 81 315 1.0 4.0 0.00 0.00 0.00 72 1019.0
20260905180204 81 315 1.0 4.0 0.00 0.00 0.00 72 1018.8
20260905180104 81 315 1.0 4.0 0.00 0.00 0.00 72 1019.0
20260905180004 81 315 1.0 4.0 0.00 0.00 0.00 72 1019.0
20260905175904 81 90 0.0 0.0 0.00 0.00 0.00 71 1018.7
20260905175804 81 292 2.0 4.0 0.00 0.00 0.00 71 1019.1
20260905175704 81 0 0.0 0.0 0.00 0.00 0.00 71 1019.0
20260905175604 81 45 0.0 2.0 0.00 0.00 0.00 71 1018.8
20260905175505 81 90 0.0 2.0 0.00 0.00 0.00 71 1019.0
20260905175404 81 90 2.0 4.0 0.00 0.00 0.00 71 1018.8
20260905175306 81 248 3.0 4.0 0.00 0.00 0.00 71 1018.9
20260905175205 81 292 2.0 6.0 0.00 0.00 0.00 71 1019.1
20260905175104 81 112 0.0 0.0 0.00 0.00 0.00 71 1018.9
20260905175004 81 45 1.0 4.0 0.00 0.00 0.00 70 1019.1
20260905174903 81 90 1.0 2.0 0.00 0.00 0.00 70 1018.9
20260905174804 81 68 1.0 2.0 0.00 0.00 0.00 70 1018.9
20260905174704 81 315 1.0 2.0 0.00 0.00 0.00 70 1018.8
20260905174603 81 270 2.0 4.0 0.00 0.00 0.00 70 1018.9
20260905174503 81 338 2.0 4.0 0.00 0.00 0.00 70 1018.9
20260905174404 81 270 2.0 4.0 0.00 0.00 0.00 70 1018.9
20260905174304 82 315 1.0 4.0 0.00 0.00 0.00 70 1018.9
20260905174204 82 292 2.0 4.0 0.00 0.00 0.00 70 1018.5
20260905174103 82 315 2.0 4.0 0.00 0.00 0.00 70 1018.9
20260905174004 82 292 2.0 6.0 0.00 0.00 0.00 70 1018.6
20260905173903 82 270 2.0 4.0 0.00 0.00 0.00 70 1018.8
20260905173803 82 248 3.0 6.0 0.00 0.00 0.00 70 1018.8
20260905173704 82 248 3.0 6.0 0.00 0.00 0.00 70 1018.6
20260905173603 82 315 2.0 4.0 0.00 0.00 0.00 70 1018.9
20260905173503 82 158 1.0 2.0 0.00 0.00 0.00 70 1018.9
20260905173404 82 68 0.0 2.0 0.00 0.00 0.00 70 1018.7
20260905173304 82 68 1.0 2.0 0.00 0.00 0.00 69 1018.9
20260905173203 82 338 1.0 2.0 0.00 0.00 0.00 69 1018.8
20260905173104 82 0 2.0 6.0 0.00 0.00 0.00 69 1018.9
20260905173005 83 292 2.0 4.0 0.00 0.00 0.00 69 1018.5
20260905172904 83 292 2.0 4.0 0.00 0.00 0.00 69 1018.9
20260905172804 83 0 1.0 4.0 0.00 0.00 0.00 69 1018.7
20260905172704 83 135 1.0 2.0 0.00 0.00 0.00 69 1018.8
20260905172604 83 202 0.0 0.0 0.00 0.00 0.00 69 1018.7
20260905172504 83 248 1.0 2.0 0.00 0.00 0.00 69 1018.9
20260905172404 83 270 1.0 2.0 0.00 0.00 0.00 69 1018.8
20260905172305 83 90 1.0 2.0 0.00 0.00 0.00 69 1018.7
20260905172204 83 248 2.0 4.0 0.00 0.00 0.00 69 1018.8
20260905172104 83 292 2.0 4.0 0.00 0.00 0.00 69 1018.7
20260905172004 83 248 3.0 6.0 0.00 0.00 0.00 69 1018.6
20260905171903 83 292 3.0 4.0 0.00 0.00 0.00 68 1018.5
20260905171803 83 292 4.0 8.0 0.00 0.00 0.00 68 1018.8
20260905171703 83 292 3.0 9.0 0.00 0.00 0.00 68 1018.7
20260905171604 83 292 7.0 11.0 0.00 0.00 0.00 68 1018.7
20260905171504 83 292 4.0 8.0 0.00 0.00 0.00 68 1018.8
20260905171404 83 292 2.0 4.0 0.00 0.00 0.00 68 1018.7
20260905171303 83 68 2.0 4.0 0.00 0.00 0.00 68 1018.6
20260905171203 83 270 2.0 4.0 0.00 0.00 0.00 68 1018.7
20260905171104 83 202 2.0 4.0 0.00 0.00 0.00 68 1018.7
20260905171004 83 315 3.0 7.0 0.00 0.00 0.00 68 1018.6
20260905170904 83 270 6.0 9.0 0.00 0.00 0.00 68 1018.8
20260905170804 83 292 5.0 9.0 0.00 0.00 0.00 67 1018.8
20260905170706 83 248 6.0 9.0 0.00 0.00 0.00 67 1018.6
20260905170604 84 338 4.0 8.0 0.00 0.00 0.00 67 1018.7
20260905170504 84 292 5.0 9.0 0.00 0.00 0.00 67 1018.6
20260905170404 84 292 5.0 9.0 0.00 0.00 0.00 67 1018.6
20260905170304 84 270 2.0 4.0 0.00 0.00 0.00 66 1018.7
20260905170204 84 292 5.0 8.0 0.00 0.00 0.00 66 1018.7
20260905170004 84 292 4.0 6.0 0.00 0.00 0.00 66 1018.7
20260905165904 84 248 2.0 7.0 0.00 0.00 0.00 65 1018.6
20260905165804 84 292 7.0 9.0 0.00 0.00 0.00 65 1018.5
20260905165704 85 270 7.0 11.0 0.00 0.00 0.00 64 1018.8
20260905165603 85 292 2.0 9.0 0.00 0.00 0.00 64 1018.6
20260905165504 85 270 3.0 6.0 0.00 0.00 0.00 63 1018.5
20260905165403 85 180 1.0 2.0 0.00 0.00 0.00 62 1018.9
20260905165306 85 112 2.0 4.0 0.00 0.00 0.00 62 1018.5
20260905165203 86 270 4.0 6.0 0.00 0.00 0.00 62 1018.5
20260905165104 86 292 3.0 4.0 0.00 0.00 0.00 61 1018.7
20260905165004 86 248 1.0 2.0 0.00 0.00 0.00 60 1018.7
20260905164904 86 22 2.0 4.0 0.00 0.00 0.00 60 1018.5
20260905164804 86 292 2.0 4.0 0.00 0.00 0.00 59 1018.6
20260905164704 86 45 2.0 4.0 0.00 0.00 0.00 59 1018.7
20260905164604 86 338 4.0 8.0 0.00 0.00 0.00 59 1018.7
20260905164504 86 225 0.0 0.0 0.00 0.00 0.00 59 1018.7
20260905164404 86 68 0.0 2.0 0.00 0.00 0.00 58 1018.8
20260905164304 86 45 2.0 4.0 0.00 0.00 0.00 58 1018.9
20260905164205 86 292 2.0 6.0 0.00 0.00 0.00 58 1018.7
20260905164104 86 270 2.0 7.0 0.00 0.00 0.00 58 1018.9
20260905164004 86 315 2.0 4.0 0.00 0.00 0.00 58 1018.8
20260905163904 86 68 2.0 4.0 0.00 0.00 0.00 58 1018.8
20260905163803 86 90 2.0 4.0 0.00 0.00 0.00 58 1018.7
20260905163704 86 68 2.0 4.0 0.00 0.00 0.00 58 1018.5
20260905163603 86 338 1.0 2.0 0.00 0.00 0.00 58 1018.8
20260905163504 86 135 2.0 4.0 0.00 0.00 0.00 58 1018.7
20260905163404 86 292 2.0 6.0 0.00 0.00 0.00 58 1018.9
20260905163304 86 292 1.0 4.0 0.00 0.00 0.00 58 1018.8
20260905163204 86 90 2.0 4.0 0.00 0.00 0.00 58 1018.9
20260905163103 87 270 2.0 4.0 0.00 0.00 0.00 58 1018.8
20260905163003 86 68 2.0 7.0 0.00 0.00 0.00 58 1018.9
20260905162903 87 68 1.0 2.0 0.00 0.00 0.00 58 1018.6
20260905162803 86 315 1.0 4.0 0.00 0.00 0.00 58 1018.8
20260905162704 86 292 1.0 2.0 0.00 0.00 0.00 58 1018.7
20260905162603 86 45 4.0 6.0 0.00 0.00 0.00 58 1018.9
20260905162503 86 292 2.0 7.0 0.00 0.00 0.00 59 1019.0
20260905162403 86 45 1.0 2.0 0.00 0.00 0.00 59 1018.6
20260905162305 86 292 4.0 9.0 0.00 0.00 0.00 59 1018.7
20260905162203 86 270 2.0 4.0 0.00 0.00 0.00 59 1018.5
20260905162104 86 292 4.0 11.0 0.00 0.00 0.00 59 1018.7
20260905162004 86 112 2.0 4.0 0.00 0.00 0.00 59 1018.7
20260905161904 86 292 4.0 9.0 0.00 0.00 0.00 58 1018.7
20260905161803 86 270 4.0 8.0 0.00 0.00 0.00 58 1018.5
20260905161704 86 315 2.0 8.0 0.00 0.00 0.00 59 1018.8
20260905161604 86 248 4.0 11.0 0.00 0.00 0.00 59 1018.6
20260905161504 86 292 1.0 2.0 0.00 0.00 0.00 60 1018.7
20260905161404 86 180 3.0 7.0 0.00 0.00 0.00 60 1018.8
20260905161303 86 292 4.0 4.0 0.00 0.00 0.00 60 1018.6
20260905161204 86 292 4.0 8.0 0.00 0.00 0.00 59 1018.6
20260905161104 86 225 0.0 2.0 0.00 0.00 0.00 60 1018.7
20260905161003 86 68 2.0 4.0 0.00 0.00 0.00 60 1018.8
20260905160903 86 68 7.0 11.0 0.00 0.00 0.00 60 1018.6
20260905160804 86 248 5.0 8.0 0.00 0.00 0.00 59 1018.4
20260905160703 87 315 4.0 7.0 0.00 0.00 0.00 58 1018.7
20260905160604 87 270 3.0 6.0 0.00 0.00 0.00 57 1018.7
20260905160504 87 270 4.0 8.0 0.00 0.00 0.00 57 1018.8
20260905160403 87 270 3.0 4.0 0.00 0.00 0.00 57 1018.8
20260905160304 87 68 2.0 6.0 0.00 0.00 0.00 58 1018.7
20260905160204 87 292 6.0 11.0 0.00 0.00 0.00 57 1018.3
20260905160104 87 292 4.0 7.0 0.00 0.00 0.00 58 1018.5
20260905160004 87 248 2.0 2.0 0.00 0.00 0.00 58 1018.6
20260905155904 87 45 5.0 11.0 0.00 0.00 0.00 58 1018.7
20260905155805 87 292 3.0 8.0 0.00 0.00 0.00 58 1018.8
20260905155704 87 225 1.0 2.0 0.00 0.00 0.00 59 1018.7
20260905155604 87 90 2.0 2.0 0.00 0.00 0.00 58 1018.6
20260905155504 87 135 2.0 7.0 0.00 0.00 0.00 58 1018.7
20260905155404 86 180 2.0 7.0 0.00 0.00 0.00 58 1018.5
20260905155306 86 225 2.0 2.0 0.00 0.00 0.00 58 1018.8
20260905155204 86 315 2.0 6.0 0.00 0.00 0.00 58 1018.7
20260905155103 86 315 3.0 4.0 0.00 0.00 0.00 58 1018.6
20260905155004 86 270 5.0 11.0 0.00 0.00 0.00 58 1018.5
20260905154904 86 270 8.0 13.0 0.00 0.00 0.00 58 1018.4
20260905154804 86 270 7.0 11.0 0.00 0.00 0.00 58 1018.5
20260905154703 86 248 6.0 9.0 0.00 0.00 0.00 57 1018.6
20260905154603 86 292 3.0 8.0 0.00 0.00 0.00 58 1018.6
20260905154504 86 45 4.0 7.0 0.00 0.00 0.00 59 1018.6
20260905154404 86 270 6.0 13.0 0.00 0.00 0.00 59 1018.6
20260905154304 86 315 4.0 8.0 0.00 0.00 0.00 59 1018.7
20260905154204 86 270 8.0 11.0 0.00 0.00 0.00 59 1018.6
20260905154105 86 292 4.0 8.0 0.00 0.00 0.00 60 1018.7
20260905154004 86 270 4.0 11.0 0.00 0.00 0.00 60 1018.6
20260905153905 86 225 4.0 11.0 0.00 0.00 0.00 60 1018.7
20260905153805 86 270 6.0 8.0 0.00 0.00 0.00 60 1018.3
20260905153704 86 292 3.0 6.0 0.00 0.00 0.00 60 1018.7
20260905153604 86 292 5.0 11.0 0.00 0.00 0.00 60 1018.6
20260905153503 86 292 4.0 9.0 0.00 0.00 0.00 59 1018.5
20260905153404 86 292 8.0 11.0 0.00 0.00 0.00 59 1018.4
20260905153305 86 270 9.0 11.0 0.00 0.00 0.00 59 1018.6
20260905153204 86 292 4.0 8.0 0.00 0.00 0.00 60 1018.7
20260905153104 86 248 3.0 6.0 0.00 0.00 0.00 60 1018.5
20260905153004 86 292 5.0 8.0 0.00 0.00 0.00 60 1018.4
20260905152904 85 248 9.0 13.0 0.00 0.00 0.00 60 1018.6
20260905152804 86 270 8.0 13.0 0.00 0.00 0.00 60 1018.5
20260905152704 86 270 5.0 8.0 0.00 0.00 0.00 60 1018.6
20260905152603 86 270 7.0 11.0 0.00 0.00 0.00 60 1018.6
20260905152503 86 292 8.0 13.0 0.00 0.00 0.00 60 1018.3
20260905152404 86 292 5.0 8.0 0.00 0.00 0.00 60 1018.5
20260905152306 86 225 7.0 9.0 0.00 0.00 0.00 60 1018.5
20260905152204 86 292 7.0 13.0 0.00 0.00 0.00 60 1018.5
20260905152105 86 292 7.0 11.0 0.00 0.00 0.00 59 1018.6
20260905152004 86 292 8.0 14.0 0.00 0.00 0.00 58 1018.7
20260905151904 86 270 7.0 9.0 0.00 0.00 0.00 57 1018.5
20260905151805 86 315 7.0 11.0 0.00 0.00 0.00 57 1018.4
20260905151704 87 292 7.0 11.0 0.00 0.00 0.00 57 1018.5
20260905151604 87 292 7.0 11.0 0.00 0.00 0.00 57 1018.6
20260905151504 87 270 5.0 7.0 0.00 0.00 0.00 58 1018.4
20260905151404 87 270 8.0 11.0 0.00 0.00 0.00 58 1018.7
20260905151305 87 292 10.0 14.0 0.00 0.00 0.00 57 1018.5
20260905151204 88 292 10.0 15.0 0.00 0.00 0.00 56 1018.6
20260905151104 89 292 4.0 6.0 0.00 0.00 0.00 55 1018.6
20260905151004 89 270 2.0 4.0 0.00 0.00 0.00 55 1018.6
20260905150904 89 270 1.0 2.0 0.00 0.00 0.00 55 1018.5
20260905150804 89 135 2.0 4.0 0.00 0.00 0.00 55 1018.6
20260905150704 89 292 4.0 8.0 0.00 0.00 0.00 54 1018.7
20260905150604 89 45 3.0 6.0 0.00 0.00 0.00 54 1018.7
20260905150503 89 292 4.0 9.0 0.00 0.00 0.00 54 1018.6
20260905150403 89 45 4.0 8.0 0.00 0.00 0.00 55 1018.5
20260905150304 90 22 2.0 6.0 0.00 0.00 0.00 56 1018.6
20260905150204 90 292 4.0 6.0 0.00 0.00 0.00 55 1018.9
20260905150103 90 292 5.0 8.0 0.00 0.00 0.00 55 1018.4
20260905150003 90 112 2.0 2.0 0.00 0.00 0.00 55 1018.7
20260905145903 90 248 2.0 4.0 0.00 0.00 0.00 56 1018.5
20260905145804 90 270 2.0 4.0 0.00 0.00 0.00 55 1018.8
20260905145703 90 90 2.0 4.0 0.00 0.00 0.00 56 1018.8
20260905145604 90 112 1.0 2.0 0.00 0.00 0.00 56 1018.7
20260905145504 90 90 0.0 2.0 0.00 0.00 0.00 56 1018.6
20260905145404 89 90 0.0 0.0 0.00 0.00 0.00 56 1018.5
20260905145306 89 68 1.0 2.0 0.00 0.00 0.00 56 1018.7
20260905145203 89 45 1.0 2.0 0.00 0.00 0.00 56 1018.7
20260905145104 89 112 2.0 2.0 0.00 0.00 0.00 56 1018.5
20260905145003 90 90 1.0 2.0 0.00 0.00 0.00 56 1018.8
20260905144904 89 68 1.0 4.0 0.00 0.00 0.00 55 1018.7
20260905144804 89 68 2.0 4.0 0.00 0.00 0.00 55 1018.5
20260905144704 89 90 1.0 2.0 0.00 0.00 0.00 55 1018.6
20260905144604 89 68 2.0 4.0 0.00 0.00 0.00 55 1018.7
20260905144504 89 68 2.0 4.0 0.00 0.00 0.00 55 1018.7
20260905144404 89 292 3.0 6.0 0.00 0.00 0.00 55 1018.7
20260905144304 89 270 3.0 6.0 0.00 0.00 0.00 56 1018.7
20260905144204 89 202 3.0 7.0 0.00 0.00 0.00 55 1018.6
20260905144104 89 270 2.0 6.0 0.00 0.00 0.00 56 1018.8
20260905144004 89 45 1.0 2.0 0.00 0.00 0.00 57 1018.7
20260905143904 88 292 4.0 8.0 0.00 0.00 0.00 56 1018.6
20260905143804 88 45 2.0 8.0 0.00 0.00 0.00 57 1018.6
20260905143703 88 45 4.0 11.0 0.00 0.00 0.00 58 1018.7
20260905143604 88 90 2.0 2.0 0.00 0.00 0.00 59 1018.6
20260905143504 88 68 2.0 4.0 0.00 0.00 0.00 59 1018.9
20260905143404 88 292 5.0 7.0 0.00 0.00 0.00 59 1018.6
20260905143303 88 270 6.0 9.0 0.00 0.00 0.00 59 1018.5
20260905143204 88 292 6.0 8.0 0.00 0.00 0.00 58 1018.8
20260905141504 89 292 4.0 7.0 0.00 0.00 0.00 54 1018.7
20260905141404 90 292 7.0 9.0 0.00 0.00 0.00 54 1018.7
20260905141304 90 292 5.0 9.0 0.00 0.00 0.00 54 1018.8
20260905141204 90 68 2.0 4.0 0.00 0.00 0.00 55 1018.7
20260905141103 90 90 0.0 2.0 0.00 0.00 0.00 55 1018.8
20260905141004 90 225 2.0 4.0 0.00 0.00 0.00 55 1018.8
20260905140903 90 68 2.0 4.0 0.00 0.00 0.00 55 1018.7
20260905140803 90 112 2.0 8.0 0.00 0.00 0.00 55 1018.7
20260905140703 90 45 2.0 7.0 0.00 0.00 0.00 55 1018.8
20260905140604 90 270 3.0 7.0 0.00 0.00 0.00 54 1018.7
20260905140503 90 90 0.0 2.0 0.00 0.00 0.00 55 1018.8
20260905140403 90 338 0.0 2.0 0.00 0.00 0.00 55 1019.1
20260905140303 90 292 5.0 9.0 0.00 0.00 0.00 54 1018.8
20260905140204 90 270 2.0 7.0 0.00 0.00 0.00 54 1018.8
20260905140104 90 68 1.0 2.0 0.00 0.00 0.00 54 1018.8
20260905140004 90 248 2.0 4.0 0.00 0.00 0.00 54 1019.0
20260905135903 90 68 2.0 6.0 0.00 0.00 0.00 55 1019.0
20260905135804 90 270 4.0 7.0 0.00 0.00 0.00 54 1018.9
20260905135704 90 292 2.0 8.0 0.00 0.00 0.00 55 1018.9
20260905135604 90 270 1.0 2.0 0.00 0.00 0.00 56 1018.9
20260905135504 89 90 4.0 8.0 0.00 0.00 0.00 56 1019.1
20260905135404 89 292 5.0 7.0 0.00 0.00 0.00 55 1018.9
20260905135306 89 270 3.0 6.0 0.00 0.00 0.00 56 1018.8
20260905135204 89 202 3.0 6.0 0.00 0.00 0.00 56 1019.0
20260905135104 89 270 3.0 8.0 0.00 0.00 0.00 55 1019.0
20260905135003 89 248 8.0 11.0 0.00 0.00 0.00 55 1018.9
20260905134904 89 292 2.0 8.0 0.00 0.00 0.00 55 1018.7
20260905134804 89 68 0.0 2.0 0.00 0.00 0.00 56 1018.9
20260905134704 89 112 0.0 2.0 0.00 0.00 0.00 56 1019.0
20260905134603 89 248 4.0 7.0 0.00 0.00 0.00 56 1019.0
20260905134503 89 292 4.0 6.0 0.00 0.00 0.00 55 1019.1
20260905134404 89 292 4.0 8.0 0.00 0.00 0.00 55 1018.9
20260905134303 89 68 1.0 2.0 0.00 0.00 0.00 56 1019.2
20260905134203 89 315 4.0 7.0 0.00 0.00 0.00 56 1019.2
20260905134104 89 270 3.0 7.0 0.00 0.00 0.00 56 1019.2
20260905134004 89 292 5.0 11.0 0.00 0.00 0.00 55 1019.3
20260905133904 89 270 4.0 8.0 0.00 0.00 0.00 56 1019.0
20260905133804 89 68 1.0 2.0 0.00 0.00 0.00 57 1019.2
20260905133704 89 68 2.0 4.0 0.00 0.00 0.00 57 1019.2
20260905133604 89 315 8.0 11.0 0.00 0.00 0.00 56 1019.1
20260905133504 89 68 3.0 8.0 0.00 0.00 0.00 56 1019.0
20260905133404 89 135 2.0 6.0 0.00 0.00 0.00 56 1019.3
20260905133303 89 315 4.0 9.0 0.00 0.00 0.00 56 1019.1
20260905133204 89 315 4.0 9.0 0.00 0.00 0.00 57 1019.1
20260905133106 88 90 0.0 2.0 0.00 0.00 0.00 58 1019.3
20260905133005 88 68 1.0 2.0 0.00 0.00 0.00 58 1019.3
20260905132903 88 135 3.0 7.0 0.00 0.00 0.00 58 1019.3
20260905132804 88 270 4.0 7.0 0.00 0.00 0.00 57 1019.3
20260905132704 88 248 3.0 4.0 0.00 0.00 0.00 56 1019.3
20260905132604 88 292 6.0 7.0 0.00 0.00 0.00 56 1019.0
20260905132504 88 292 6.0 7.0 0.00 0.00 0.00 55 1019.3
20260905132404 89 270 8.0 9.0 0.00 0.00 0.00 55 1019.1
20260905132305 89 248 4.0 6.0 0.00 0.00 0.00 53 1019.1
20260905132204 89 90 4.0 6.0 0.00 0.00 0.00 54 1019.1
20260905132104 89 248 3.0 4.0 0.00 0.00 0.00 53 1019.1
20260905132004 89 248 6.0 8.0 0.00 0.00 0.00 53 1019.2
20260905131903 90 270 2.0 4.0 0.00 0.00 0.00 52 1019.2
20260905131804 90 270 3.0 7.0 0.00 0.00 0.00 52 1019.4
20260905131703 91 270 2.0 8.0 0.00 0.00 0.00 52 1019.3
20260905131603 91 270 4.0 9.0 0.00 0.00 0.00 53 1019.4
20260905131503 91 248 2.0 4.0 0.00 0.00 0.00 53 1019.2
20260905131404 91 90 1.0 2.0 0.00 0.00 0.00 53 1019.2
20260905131303 90 22 4.0 8.0 0.00 0.00 0.00 52 1019.2
20260905131203 91 315 2.0 8.0 0.00 0.00 0.00 52 1019.2
20260905131104 90 68 2.0 2.0 0.00 0.00 0.00 53 1019.4
20260905131004 90 270 4.0 9.0 0.00 0.00 0.00 52 1019.4
20260905130904 91 68 2.0 7.0 0.00 0.00 0.00 53 1019.4
20260905130804 90 315 3.0 9.0 0.00 0.00 0.00 52 1019.2
20260905130704 90 270 2.0 6.0 0.00 0.00 0.00 52 1019.2
20260905130604 90 22 1.0 2.0 0.00 0.00 0.00 52 1019.5
20260905130504 90 225 1.0 2.0 0.00 0.00 0.00 51 1019.3
20260905130404 90 225 3.0 6.0 0.00 0.00 0.00 52 1019.4
20260905130304 90 202 2.0 6.0 0.00 0.00 0.00 53 1019.5
20260905130205 89 292 4.0 7.0 0.00 0.00 0.00 53 1019.6
20260905130104 89 270 1.0 7.0 0.00 0.00 0.00 55 1019.5
20260905130003 89 292 2.0 4.0 0.00 0.00 0.00 55 1019.4
20260905125904 89 248 2.0 4.0 0.00 0.00 0.00 56 1019.5
20260905125804 89 315 2.0 2.0 0.00 0.00 0.00 56 1019.4
20260905125703 89 270 5.0 11.0 0.00 0.00 0.00 56 1019.5
20260905125604 89 270 5.0 11.0 0.00 0.00 0.00 56 1019.4
20260905125504 89 315 4.0 8.0 0.00 0.00 0.00 56 1019.7
20260905125403 89 270 7.0 11.0 0.00 0.00 0.00 56 1019.5
20260905125306 89 292 3.0 8.0 0.00 0.00 0.00 55 1019.4
20260905125204 89 202 1.0 4.0 0.00 0.00 0.00 56 1019.6
20260905125103 89 68 1.0 2.0 0.00 0.00 0.00 57 1019.6
20260905125004 89 68 2.0 4.0 0.00 0.00 0.00 57 1019.6
20260905124904 88 68 4.0 7.0 0.00 0.00 0.00 56 1019.4
20260905124803 89 202 2.0 2.0 0.00 0.00 0.00 57 1019.4
20260905124703 88 292 3.0 6.0 0.00 0.00 0.00 56 1019.5
20260905124604 89 270 6.0 8.0 0.00 0.00 0.00 56 1019.6
20260905124503 89 292 4.0 9.0 0.00 0.00 0.00 55 1019.6
20260905124404 89 270 6.0 11.0 0.00 0.00 0.00 55 1019.7
20260905124303 90 292 4.0 13.0 0.00 0.00 0.00 54 1019.3
20260905124203 90 270 2.0 4.0 0.00 0.00 0.00 55 1019.7
20260905124104 90 270 1.0 2.0 0.00 0.00 0.00 56 1019.4
20260905124004 90 68 2.0 6.0 0.00 0.00 0.00 56 1019.6
20260905123904 90 68 2.0 2.0 0.00 0.00 0.00 56 1019.5
20260905123803 90 270 2.0 2.0 0.00 0.00 0.00 56 1019.6
20260905123703 90 90 2.0 6.0 0.00 0.00 0.00 57 1019.5
20260905123604 89 68 3.0 9.0 0.00 0.00 0.00 57 1019.5
20260905123503 89 292 1.0 4.0 0.00 0.00 0.00 57 1019.7
20260905123404 89 202 2.0 2.0 0.00 0.00 0.00 57 1019.4
20260905123304 89 112 4.0 8.0 0.00 0.00 0.00 57 1019.6
20260905123204 89 292 2.0 4.0 0.00 0.00 0.00 58 1019.7
20260905123103 88 90 1.0 2.0 0.00 0.00 0.00 59 1019.5
20260905123003 88 135 1.0 2.0 0.00 0.00 0.00 59 1019.6
20260905122903 88 45 4.0 7.0 0.00 0.00 0.00 58 1019.8
20260905122804 88 270 6.0 9.0 0.00 0.00 0.00 58 1019.6
20260905122703 88 292 6.0 8.0 0.00 0.00 0.00 57 1019.8
20260905122603 88 292 4.0 6.0 0.00 0.00 0.00 57 1019.7
20260905122503 88 292 6.0 11.0 0.00 0.00 0.00 57 1019.6
20260905122403 88 270 2.0 8.0 0.00 0.00 0.00 58 1019.9
20260905122306 88 90 2.0 2.0 0.00 0.00 0.00 58 1019.6
20260905122203 88 68 4.0 9.0 0.00 0.00 0.00 59 1019.7
20260905122104 87 292 2.0 8.0 0.00 0.00 0.00 59 1019.6
20260905122004 87 292 4.0 7.0 0.00 0.00 0.00 58 1019.6
20260905121903 87 270 8.0 9.0 0.00 0.00 0.00 58 1019.8
20260905121805 88 248 7.0 11.0 0.00 0.00 0.00 57 1019.6
20260905121704 88 292 5.0 8.0 0.00 0.00 0.00 57 1019.8
20260905121604 89 292 7.0 11.0 0.00 0.00 0.00 56 1019.7
20260905121504 89 315 1.0 2.0 0.00 0.00 0.00 57 1019.8
20260905121404 89 90 0.0 2.0 0.00 0.00 0.00 57 1019.7
20260905121304 89 248 2.0 4.0 0.00 0.00 0.00 57 1019.7
20260905121203 89 270 4.0 8.0 0.00 0.00 0.00 56 1019.4
20260905121103 88 292 4.0 8.0 0.00 0.00 0.00 57 1019.6
20260905121003 89 292 3.0 11.0 0.00 0.00 0.00 56 1019.7
20260905120904 88 90 1.0 4.0 0.00 0.00 0.00 57 1019.7
20260905120804 88 90 3.0 4.0 0.00 0.00 0.00 56 1019.6
20260905120703 88 292 1.0 4.0 0.00 0.00 0.00 57 1019.8
20260905120603 88 180 4.0 8.0 0.00 0.00 0.00 57 1019.7
20260905120503 88 315 7.0 11.0 0.00 0.00 0.00 56 1019.9
20260905120403 88 270 7.0 11.0 0.00 0.00 0.00 57 1019.6
20260905120303 89 270 2.0 4.0 0.00 0.00 0.00 58 1019.9
20260905120204 89 315 3.0 8.0 0.00 0.00 0.00 58 1019.8
20260905120103 89 315 3.0 8.0 0.00 0.00 0.00 58 1019.8
20260905120004 89 315 3.0 8.0 0.00 0.00 0.00 58 1019.9
20260905115904 88 0 6.0 11.0 0.00 0.00 0.00 57 1019.7
20260905115804 88 270 4.0 9.0 0.00 0.00 0.00 57 1019.7
20260905115704 88 270 4.0 9.0 0.00 0.00 0.00 57 1019.9
20260905115604 88 292 6.0 11.0 0.00 0.00 0.00 56 1019.9
20260905115504 89 90 2.0 4.0 0.00 0.00 0.00 57 1019.9
20260905115404 89 68 6.0 11.0 0.00 0.00 0.00 56 1019.8
20260905115306 89 292 4.0 13.0 0.00 0.00 0.00 56 1019.8
20260905115204 89 90 2.0 7.0 0.00 0.00 0.00 57 1019.9
20260905115104 89 22 3.0 6.0 0.00 0.00 0.00 56 1019.8
20260905115003 89 270 2.0 2.0 0.00 0.00 0.00 57 1019.8
20260905114904 89 90 2.0 4.0 0.00 0.00 0.00 56 1019.9
20260905114804 89 68 4.0 11.0 0.00 0.00 0.00 57 1019.8
20260905114704 89 90 1.0 2.0 0.00 0.00 0.00 58 1019.6
20260905114603 89 45 2.0 4.0 0.00 0.00 0.00 58 1020.0
20260905114503 89 68 1.0 2.0 0.00 0.00 0.00 58 1020.2
20260905114404 89 225 4.0 9.0 0.00 0.00 0.00 59 1019.9
20260905114303 89 292 2.0 7.0 0.00 0.00 0.00 58 1020.0
20260905114203 88 90 1.0 2.0 0.00 0.00 0.00 58 1019.8
20260905114104 88 158 1.0 4.0 0.00 0.00 0.00 58 1019.7
20260905114004 88 112 1.0 2.0 0.00 0.00 0.00 59 1020.0
20260905113905 87 90 1.0 2.0 0.00 0.00 0.00 59 1019.8
20260905113804 87 45 2.0 4.0 0.00 0.00 0.00 59 1019.9
20260905113704 87 270 2.0 6.0 0.00 0.00 0.00 60 1020.0
20260905113604 87 292 7.0 11.0 0.00 0.00 0.00 60 1020.0
20260905113503 87 270 9.0 15.0 0.00 0.00 0.00 59 1019.8
20260905113404 88 292 8.0 13.0 0.00 0.00 0.00 57 1020.0
20260905113305 88 292 8.0 13.0 0.00 0.00 0.00 57 1019.9
20260905113204 88 292 8.0 13.0 0.00 0.00 0.00 57 1020.0
20260905113104 89 338 1.0 2.0 0.00 0.00 0.00 58 1020.0
20260905113004 89 90 2.0 6.0 0.00 0.00 0.00 58 1020.1
20260905112903 89 22 3.0 6.0 0.00 0.00 0.00 58 1020.1
20260905112804 89 225 4.0 11.0 0.00 0.00 0.00 58 1019.9
20260905112704 88 68 2.0 4.0 0.00 0.00 0.00 58 1020.1
20260905112604 88 225 6.0 11.0 0.00 0.00 0.00 57 1019.9
20260905112504 88 292 2.0 7.0 0.00 0.00 0.00 56 1019.8
20260905112403 88 68 1.0 2.0 0.00 0.00 0.00 58 1020.0
20260905112305 87 68 3.0 7.0 0.00 0.00 0.00 59 1020.0
20260905112204 87 315 4.0 11.0 0.00 0.00 0.00 59 1020.2
20260905112105 87 292 6.0 11.0 0.00 0.00 0.00 60 1020.1
20260905112005 87 315 6.0 9.0 0.00 0.00 0.00 60 1019.9
20260905111904 87 292 4.0 8.0 0.00 0.00 0.00 60 1020.0
20260905111804 87 292 4.0 11.0 0.00 0.00 0.00 60 1020.0
20260905111704 87 135 3.0 7.0 0.00 0.00 0.00 61 1019.9
20260905111604 87 292 2.0 4.0 0.00 0.00 0.00 61 1019.9
20260905111504 86 292 8.0 11.0 0.00 0.00 0.00 60 1020.1
20260905111405 87 248 6.0 8.0 0.00 0.00 0.00 60 1019.9
20260905111304 87 225 4.0 7.0 0.00 0.00 0.00 59 1020.0
20260905111204 87 225 4.0 7.0 0.00 0.00 0.00 58 1020.0
20260905111104 87 270 6.0 11.0 0.00 0.00 0.00 59 1020.1
20260905111004 87 315 2.0 7.0 0.00 0.00 0.00 60 1020.1
20260905110904 87 292 3.0 6.0 0.00 0.00 0.00 61 1020.1
20260905110804 87 112 1.0 2.0 0.00 0.00 0.00 62 1020.1
20260905110704 87 270 7.0 9.0 0.00 0.00 0.00 62 1020.1
20260905110603 86 292 6.0 9.0 0.00 0.00 0.00 61 1020.1
20260905110503 87 292 8.0 13.0 0.00 0.00 0.00 60 1020.1
20260905110404 87 315 8.0 11.0 0.00 0.00 0.00 60 1020.0
20260905110303 88 68 2.0 6.0 0.00 0.00 0.00 60 1019.8
20260905110203 88 68 2.0 6.0 0.00 0.00 0.00 60 1019.9
20260905110004 88 180 3.0 8.0 0.00 0.00 0.00 60 1020.0
20260905105903 87 68 1.0 2.0 0.00 0.00 0.00 61 1020.0
20260905105803 87 90 2.0 4.0 0.00 0.00 0.00 61 1020.2
20260905105703 87 45 2.0 6.0 0.00 0.00 0.00 62 1020.1
20260905105603 87 292 2.0 9.0 0.00 0.00 0.00 61 1020.1
20260905105503 87 292 4.0 7.0 0.00 0.00 0.00 61 1019.9
20260905105404 87 248 6.0 7.0 0.00 0.00 0.00 61 1019.9
20260905105306 87 270 4.0 6.0 0.00 0.00 0.00 62 1019.9
20260905105204 87 292 2.0 4.0 0.00 0.00 0.00 63 1019.8
20260905105104 86 0 6.0 9.0 0.00 0.00 0.00 63 1019.7
20260905105004 86 292 3.0 7.0 0.00 0.00 0.00 63 1019.8
20260905104904 86 248 5.0 8.0 0.00 0.00 0.00 62 1019.8
20260905104804 86 292 5.0 8.0 0.00 0.00 0.00 62 1019.9
20260905104704 86 270 4.0 7.0 0.00 0.00 0.00 61 1020.0
20260905104604 86 90 3.0 9.0 0.00 0.00 0.00 62 1020.0
20260905104504 86 292 6.0 11.0 0.00 0.00 0.00 61 1020.1
20260905104404 86 270 4.0 8.0 0.00 0.00 0.00 62 1020.0
20260905104304 86 292 3.0 6.0 0.00 0.00 0.00 62 1019.9
20260905104204 86 22 0.0 2.0 0.00 0.00 0.00 63 1019.9
20260905104104 86 292 2.0 2.0 0.00 0.00 0.00 63 1019.8
20260905104003 85 270 4.0 8.0 0.00 0.00 0.00 62 1020.0
20260905103903 86 270 7.0 9.0 0.00 0.00 0.00 61 1020.0
20260905103803 86 292 5.0 11.0 0.00 0.00 0.00 60 1019.9
20260905103703 87 292 7.0 11.0 0.00 0.00 0.00 60 1020.0
20260905103604 87 270 2.0 7.0 0.00 0.00 0.00 61 1020.0
20260905103504 87 90 4.0 11.0 0.00 0.00 0.00 62 1020.0
20260905103403 87 270 4.0 9.0 0.00 0.00 0.00 61 1019.9
20260905103304 87 292 8.0 11.0 0.00 0.00 0.00 61 1019.9
20260905103203 87 292 8.0 11.0 0.00 0.00 0.00 61 1020.0
20260905103104 87 315 5.0 9.0 0.00 0.00 0.00 62 1020.0
20260905103004 87 292 2.0 7.0 0.00 0.00 0.00 62 1020.0
20260905102905 87 225 1.0 2.0 0.00 0.00 0.00 62 1019.8
20260905102804 87 270 2.0 4.0 0.00 0.00 0.00 62 1020.0
20260905102704 86 180 2.0 4.0 0.00 0.00 0.00 63 1019.8
20260905102605 86 180 2.0 4.0 0.00 0.00 0.00 63 1019.9
20260905102504 86 180 2.0 4.0 0.00 0.00 0.00 63 1020.2
20260905102404 86 180 2.0 4.0 0.00 0.00 0.00 63 1020.1